Wetterdaten: aktuell Mittwoch, 17.10.2018 15:56
Datum Zeit Temp. I. Temp. 2m Temp. 5cm Feuchte I. Feuchte 2m Luftdruck Regen Wind Richtung Richtung Taupunkt Windchill Windben
17.10.2018 15:56 26,0 C 19,7 C 15,8 C 41 % 54 % 1021,7 hPa 0,0 l/m 1,0 km/h (0 Bft) NW 315 10,1 C 19,7 C 3,5 km/h (1 Bft)
17.10.2018 15:54 26,0 C 19,7 C 15,9 C 41 % 54 % 1021,7 hPa 0,0 l/m 0,8 km/h (0 Bft) NO 45 10,1 C 19,7 C 2,3 km/h (1 Bft)
17.10.2018 15:52 26,0 C 20,1 C 15,6 C 41 % 54 % 1021,7 hPa 0,0 l/m 0,8 km/h (0 Bft) N 360 10,5 C 20,1 C 2,3 km/h (1 Bft)
17.10.2018 15:50 26,0 C 20,2 C 15,4 C 41 % 55 % 1021,7 hPa 0,0 l/m 1,0 km/h (0 Bft) NW 315 10,9 C 20,2 C 0,0 km/h (0 Bft)
17.10.2018 15:48 26,0 C 20,0 C 15,2 C 41 % 55 % 1021,7 hPa 0,0 l/m 1,0 km/h (0 Bft) N-NW 337 10,7 C 20,0 C 2,1 km/h (1 Bft)
17.10.2018 15:46 26,0 C 19,7 C 15,3 C 41 % 54 % 1021,7 hPa 0,0 l/m 1,0 km/h (0 Bft) NW 315 10,1 C 19,7 C 3,3 km/h (1 Bft)
17.10.2018 15:44 26,0 C 19,9 C 15,3 C 41 % 54 % 1021,7 hPa 0,0 l/m 1,1 km/h (1 Bft) NW 315 10,3 C 19,9 C 3,3 km/h (1 Bft)
17.10.2018 15:42 26,0 C 20,0 C 15,4 C 41 % 53 % 1021,8 hPa 0,0 l/m 0,8 km/h (0 Bft) N-NW 337 10,1 C 20,0 C 4,4 km/h (1 Bft)
17.10.2018 15:40 26,0 C 20,1 C 15,4 C 41 % 53 % 1021,8 hPa 0,0 l/m 0,5 km/h (0 Bft) NO 45 10,2 C 20,1 C 4,4 km/h (1 Bft)
17.10.2018 15:38 26,0 C 20,4 C 15,4 C 41 % 54 % 1021,8 hPa 0,0 l/m 0,6 km/h (0 Bft) NO 45 10,8 C 20,4 C 1,9 km/h (1 Bft)
17.10.2018 15:36 26,0 C 20,4 C 15,5 C 41 % 54 % 1021,8 hPa 0,0 l/m 0,8 km/h (0 Bft) O-NO 67 10,8 C 20,4 C 2,9 km/h (1 Bft)
17.10.2018 15:34 26,0 C 20,1 C 15,6 C 41 % 55 % 1021,8 hPa 0,0 l/m 0,6 km/h (0 Bft) O 90 10,8 C 20,1 C 2,9 km/h (1 Bft)
17.10.2018 15:32 26,0 C 20,0 C 15,7 C 41 % 55 % 1021,8 hPa 0,0 l/m 0,6 km/h (0 Bft) NO 45 10,7 C 20,0 C 0,0 km/h (0 Bft)
17.10.2018 15:30 26,0 C 19,9 C 15,8 C 41 % 55 % 1021,8 hPa 0,0 l/m 0,6 km/h (0 Bft) NO 45 10,6 C 19,9 C 3,1 km/h (1 Bft)
17.10.2018 15:28 26,0 C 19,9 C 16,1 C 41 % 55 % 1021,8 hPa 0,0 l/m 0,5 km/h (0 Bft) N-NO 22 10,6 C 19,9 C 4,2 km/h (1 Bft)
17.10.2018 15:26 26,1 C 20,0 C 16,3 C 41 % 55 % 1021,8 hPa 0,0 l/m 0,3 km/h (0 Bft) N-NO 22 10,7 C 20,0 C 4,2 km/h (1 Bft)
17.10.2018 15:24 26,1 C 20,1 C 16,6 C 41 % 55 % 1021,8 hPa 0,0 l/m 0,2 km/h (0 Bft) NW 315 10,8 C 20,1 C 1,9 km/h (1 Bft)
17.10.2018 15:22 26,1 C 20,2 C 16,7 C 41 % 55 % 1022,3 hPa 0,0 l/m 0,2 km/h (0 Bft) SW 225 10,9 C 20,2 C 0,0 km/h (0 Bft)
17.10.2018 15:20 26,1 C 20,1 C 16,6 C 41 % 55 % 1022,3 hPa 0,0 l/m 0,3 km/h (0 Bft) S-SW 202 10,8 C 20,1 C 0,0 km/h (0 Bft)
17.10.2018 15:18 26,1 C 20,1 C 16,5 C 41 % 55 % 1022,3 hPa 0,0 l/m 0,8 km/h (0 Bft) NW 315 10,8 C 20,1 C 0,0 km/h (0 Bft)
17.10.2018 15:16 26,1 C 19,9 C 16,1 C 41 % 56 % 1022,3 hPa 0,0 l/m 1,1 km/h (1 Bft) N-NO 22 10,9 C 19,9 C 2,3 km/h (1 Bft)
17.10.2018 15:14 26,1 C 19,7 C 16,0 C 41 % 56 % 1022,3 hPa 0,0 l/m 1,4 km/h (1 Bft) SO 135 10,7 C 19,7 C 2,3 km/h (1 Bft)
17.10.2018 15:12 26,1 C 19,6 C 16,4 C 41 % 56 % 1022,3 hPa 0,0 l/m 1,9 km/h (1 Bft) SO 135 10,6 C 19,6 C 2,9 km/h (1 Bft)
17.10.2018 15:10 26,1 C 19,4 C 16,5 C 41 % 56 % 1022,3 hPa 0,0 l/m 2,7 km/h (1 Bft) N-NO 22 10,4 C 19,4 C 2,9 km/h (1 Bft)
17.10.2018 15:08 26,2 C 19,4 C 16,6 C 41 % 56 % 1022,3 hPa 0,0 l/m 2,6 km/h (1 Bft) NW 315 10,4 C 19,4 C 2,1 km/h (1 Bft)
17.10.2018 15:06 26,2 C 19,4 C 17,3 C 41 % 55 % 1022,3 hPa 0,0 l/m 2,6 km/h (1 Bft) NW 315 10,1 C 19,4 C 3,5 km/h (1 Bft)
17.10.2018 15:04 26,2 C 19,4 C 17,6 C 41 % 55 % 1022,3 hPa 0,0 l/m 2,7 km/h (1 Bft) W-NW 292 10,1 C 19,4 C 3,5 km/h (1 Bft)
17.10.2018 15:02 26,2 C 19,6 C 17,7 C 41 % 55 % 1022,3 hPa 0,0 l/m 2,1 km/h (1 Bft) W-NW 292 10,3 C 19,6 C 6,8 km/h (2 Bft)
17.10.2018 15:00 26,2 C 19,9 C 18,0 C 41 % 55 % 1022,3 hPa 0,0 l/m 1,3 km/h (1 Bft) N-NW 337 10,6 C 19,9 C 6,8 km/h (2 Bft)
17.10.2018 14:58 26,2 C 20,1 C 18,1 C 41 % 56 % 1022,3 hPa 0,0 l/m 1,0 km/h (0 Bft) N-NO 22 11,0 C 20,1 C 2,9 km/h (1 Bft)
17.10.2018 14:56 26,2 C 20,0 C 17,7 C 41 % 56 % 1022,3 hPa 0,0 l/m 0,5 km/h (0 Bft) N-NO 22 11,0 C 20,0 C 4,8 km/h (1 Bft)
17.10.2018 14:54 26,2 C 19,9 C 17,8 C 41 % 56 % 1022,3 hPa 0,0 l/m 0,5 km/h (0 Bft) W-SW 247 10,9 C 19,9 C 4,8 km/h (1 Bft)
17.10.2018 14:52 26,2 C 19,9 C 18,0 C 41 % 56 % 1022,3 hPa 0,0 l/m 0,5 km/h (0 Bft) S-SW 202 10,9 C 19,9 C 0,0 km/h (0 Bft)
17.10.2018 14:50 26,2 C 19,9 C 18,1 C 41 % 56 % 1022,3 hPa 0,0 l/m 0,5 km/h (0 Bft) W-SW 247 10,9 C 19,9 C 3,3 km/h (1 Bft)
17.10.2018 14:48 26,2 C 20,0 C 18,3 C 41 % 55 % 1022,3 hPa 0,0 l/m 0,6 km/h (0 Bft) W 270 10,7 C 20,0 C 3,3 km/h (1 Bft)
17.10.2018 14:46 26,3 C 19,9 C 18,1 C 41 % 55 % 1022,3 hPa 0,0 l/m 0,5 km/h (0 Bft) SW 225 10,6 C 19,9 C 0,0 km/h (0 Bft)
17.10.2018 14:44 26,3 C 20,0 C 18,3 C 41 % 55 % 1022,3 hPa 0,0 l/m 0,5 km/h (0 Bft) W-SW 247 10,7 C 20,0 C 0,0 km/h (0 Bft)
17.10.2018 14:42 26,3 C 20,1 C 18,5 C 41 % 56 % 1022,5 hPa 0,0 l/m 0,5 km/h (0 Bft) SW 225 11,0 C 20,1 C 2,3 km/h (1 Bft)
17.10.2018 14:40 26,3 C 20,1 C 18,3 C 41 % 56 % 1022,5 hPa 0,0 l/m 0,5 km/h (0 Bft) SW 225 11,0 C 20,1 C 2,3 km/h (1 Bft)
17.10.2018 14:38 26,2 C 20,1 C 18,2 C 41 % 56 % 1022,5 hPa 0,0 l/m 0,5 km/h (0 Bft) S 180 11,0 C 20,1 C 2,3 km/h (1 Bft)
17.10.2018 14:36 26,2 C 19,9 C 18,1 C 41 % 56 % 1022,5 hPa 0,0 l/m 0,6 km/h (0 Bft) S-SW 202 10,9 C 19,9 C 0,0 km/h (0 Bft)
17.10.2018 14:34 26,2 C 19,7 C 17,8 C 41 % 56 % 1022,5 hPa 0,0 l/m 1,0 km/h (0 Bft) SW 225 10,7 C 19,7 C 2,7 km/h (1 Bft)
17.10.2018 14:32 26,2 C 19,6 C 17,5 C 41 % 56 % 1022,5 hPa 0,0 l/m 1,3 km/h (1 Bft) S-SW 202 10,6 C 19,6 C 2,7 km/h (1 Bft)
17.10.2018 14:30 26,4 C 19,1 C 17,3 C 41 % 56 % 1022,5 hPa 0,0 l/m 1,8 km/h (1 Bft) SW 225 10,1 C 19,1 C 0,0 km/h (0 Bft)
17.10.2018 14:28 26,4 C 19,1 C 17,2 C 41 % 56 % 1022,5 hPa 0,0 l/m 1,9 km/h (1 Bft) NW 315 10,1 C 19,1 C 2,5 km/h (1 Bft)
17.10.2018 14:26 26,4 C 19,1 C 17,0 C 41 % 56 % 1022,5 hPa 0,0 l/m 1,8 km/h (1 Bft) SW 225 10,1 C 19,1 C 4,4 km/h (1 Bft)
17.10.2018 14:24 26,4 C 18,9 C 16,9 C 41 % 56 % 1022,5 hPa 0,0 l/m 1,6 km/h (1 Bft) SO 135 9,9 C 18,9 C 4,4 km/h (1 Bft)
17.10.2018 14:22 26,4 C 18,7 C 16,7 C 41 % 56 % 1022,6 hPa 0,0 l/m 1,3 km/h (1 Bft) O-SO 112 9,7 C 18,7 C 4,1 km/h (1 Bft)
17.10.2018 14:20 26,4 C 19,0 C 16,8 C 41 % 55 % 1022,6 hPa 0,0 l/m 1,1 km/h (1 Bft) W-SW 247 9,8 C 19,0 C 4,1 km/h (1 Bft)
17.10.2018 14:18 26,4 C 19,0 C 16,9 C 41 % 55 % 1022,6 hPa 0,0 l/m 1,1 km/h (1 Bft) N-NO 22 9,8 C 19,0 C 2,1 km/h (1 Bft)
17.10.2018 14:16 26,4 C 19,1 C 17,3 C 41 % 56 % 1022,6 hPa 0,0 l/m 1,6 km/h (1 Bft) W-NW 292 10,1 C 19,1 C 1,9 km/h (1 Bft)
17.10.2018 14:14 26,4 C 19,3 C 17,3 C 41 % 56 % 1022,6 hPa 0,0 l/m 1,8 km/h (1 Bft) S-SW 202 10,3 C 19,3 C 2,1 km/h (1 Bft)
17.10.2018 14:12 26,4 C 18,7 C 17,0 C 41 % 56 % 1022,6 hPa 0,0 l/m 1,8 km/h (1 Bft) SO 135 9,7 C 18,7 C 2,1 km/h (1 Bft)
17.10.2018 14:10 26,5 C 18,4 C 16,7 C 41 % 57 % 1022,6 hPa 0,0 l/m 1,6 km/h (1 Bft) SO 135 9,7 C 18,4 C 2,7 km/h (1 Bft)
17.10.2018 14:08 26,4 C 18,4 C 16,3 C 41 % 57 % 1022,6 hPa 0,0 l/m 1,4 km/h (1 Bft) O-SO 112 9,7 C 18,4 C 6,8 km/h (2 Bft)
17.10.2018 14:06 26,5 C 18,1 C 16,3 C 41 % 57 % 1022,6 hPa 0,0 l/m 0,8 km/h (0 Bft) SO 135 9,4 C 18,1 C 6,8 km/h (2 Bft)
17.10.2018 14:04 26,5 C 18,0 C 16,6 C 41 % 57 % 1022,6 hPa 0,0 l/m 0,3 km/h (0 Bft) S-SW 202 9,4 C 18,0 C 0,0 km/h (0 Bft)
17.10.2018 14:02 26,5 C 18,2 C 16,8 C 41 % 56 % 1022,9 hPa 0,0 l/m 0,3 km/h (0 Bft) W-NW 292 9,3 C 18,2 C 1,9 km/h (1 Bft)
17.10.2018 14:00 26,5 C 18,4 C 17,1 C 41 % 56 % 1022,9 hPa 0,0 l/m 0,3 km/h (0 Bft) NW 315 9,5 C 18,4 C 1,9 km/h (1 Bft)
17.10.2018 13:58 26,5 C 18,8 C 17,5 C 41 % 56 % 1022,9 hPa 0,0 l/m 0,3 km/h (0 Bft) SW 225 9,8 C 18,8 C 1,9 km/h (1 Bft)
17.10.2018 13:56 26,5 C 19,0 C 17,6 C 41 % 56 % 1022,9 hPa 0,0 l/m 0,8 km/h (0 Bft) S-SW 202 10,0 C 19,0 C 3,1 km/h (1 Bft)
17.10.2018 13:54 26,5 C 18,7 C 17,4 C 41 % 55 % 1022,9 hPa 0,0 l/m 1,1 km/h (1 Bft) SW 225 9,5 C 18,7 C 3,1 km/h (1 Bft)
17.10.2018 13:52 26,5 C 19,1 C 17,8 C 41 % 56 % 1022,9 hPa 0,0 l/m 1,1 km/h (1 Bft) W-SW 247 10,1 C 19,1 C 0,0 km/h (0 Bft)
17.10.2018 13:50 26,6 C 19,3 C 17,9 C 41 % 56 % 1022,9 hPa 0,0 l/m 1,3 km/h (1 Bft) SW 225 10,3 C 19,3 C 2,7 km/h (1 Bft)
17.10.2018 13:48 26,6 C 19,1 C 17,8 C 41 % 56 % 1022,9 hPa 0,0 l/m 1,3 km/h (1 Bft) SW 225 10,1 C 19,1 C 2,7 km/h (1 Bft)
17.10.2018 13:46 26,6 C 19,1 C 17,7 C 41 % 56 % 1022,9 hPa 0,0 l/m 1,0 km/h (0 Bft) W-NW 292 10,1 C 19,1 C 5,2 km/h (1 Bft)
17.10.2018 13:44 26,6 C 19,3 C 17,7 C 41 % 56 % 1022,9 hPa 0,0 l/m 1,0 km/h (0 Bft) N-NW 337 10,3 C 19,3 C 5,2 km/h (1 Bft)
17.10.2018 13:42 26,6 C 19,0 C 17,5 C 41 % 57 % 1023,2 hPa 0,0 l/m 0,8 km/h (0 Bft) S-SW 202 10,3 C 19,0 C 5,2 km/h (1 Bft)
17.10.2018 13:40 26,6 C 18,5 C 17,2 C 41 % 57 % 1023,2 hPa 0,0 l/m 0,8 km/h (0 Bft) W-SW 247 9,8 C 18,5 C 0,0 km/h (0 Bft)
17.10.2018 13:38 26,6 C 18,4 C 17,0 C 41 % 57 % 1023,2 hPa 0,0 l/m 0,8 km/h (0 Bft) N-NO 22 9,7 C 18,4 C 0,0 km/h (0 Bft)
17.10.2018 13:36 26,6 C 18,5 C 17,2 C 41 % 57 % 1023,2 hPa 0,0 l/m 1,0 km/h (0 Bft) S-SW 202 9,8 C 18,5 C 2,1 km/h (1 Bft)
17.10.2018 13:34 26,6 C 18,3 C 17,1 C 41 % 57 % 1023,2 hPa 0,0 l/m 0,6 km/h (0 Bft) SW 225 9,6 C 18,3 C 2,1 km/h (1 Bft)
17.10.2018 13:32 26,6 C 18,5 C 17,2 C 41 % 57 % 1023,2 hPa 0,0 l/m 0,6 km/h (0 Bft) SW 225 9,8 C 18,5 C 3,1 km/h (1 Bft)
17.10.2018 13:30 26,6 C 18,6 C 17,3 C 41 % 57 % 1023,2 hPa 0,0 l/m 0,6 km/h (0 Bft) S 180 9,9 C 18,6 C 3,1 km/h (1 Bft)
17.10.2018 13:28 26,6 C 18,5 C 17,1 C 41 % 57 % 1023,2 hPa 0,0 l/m 0,5 km/h (0 Bft) SW 225 9,8 C 18,5 C 2,5 km/h (1 Bft)
17.10.2018 13:26 26,6 C 18,2 C 17,0 C 41 % 57 % 1023,2 hPa 0,0 l/m 0,5 km/h (0 Bft) W-NW 292 9,5 C 18,2 C 2,3 km/h (1 Bft)
17.10.2018 13:24 26,6 C 18,4 C 16,9 C 41 % 56 % 1023,2 hPa 0,0 l/m 0,5 km/h (0 Bft) W-SW 247 9,5 C 18,4 C 0,0 km/h (0 Bft)
17.10.2018 13:22 26,6 C 18,7 C 17,3 C 41 % 56 % 1023,3 hPa 0,0 l/m 0,5 km/h (0 Bft) S-SW 202 9,7 C 18,7 C 0,0 km/h (0 Bft)
17.10.2018 13:20 26,7 C 18,7 C 17,1 C 41 % 56 % 1023,3 hPa 0,0 l/m 0,6 km/h (0 Bft) S 180 9,7 C 18,7 C 4,6 km/h (1 Bft)
17.10.2018 13:18 26,7 C 18,9 C 16,8 C 41 % 56 % 1023,3 hPa 0,0 l/m 0,8 km/h (0 Bft) S-SW 202 9,9 C 18,9 C 4,6 km/h (1 Bft)
17.10.2018 13:16 26,7 C 19,0 C 17,0 C 41 % 56 % 1023,3 hPa 0,0 l/m 1,3 km/h (1 Bft) W-NW 292 10,0 C 19,0 C 2,1 km/h (1 Bft)
17.10.2018 13:14 26,7 C 19,3 C 16,9 C 41 % 57 % 1023,3 hPa 0,0 l/m 1,8 km/h (1 Bft) O-SO 112 10,6 C 19,3 C 1,9 km/h (1 Bft)
17.10.2018 13:12 26,7 C 19,1 C 16,6 C 41 % 57 % 1023,3 hPa 0,0 l/m 1,8 km/h (1 Bft) S-SW 202 10,4 C 19,1 C 3,9 km/h (1 Bft)
17.10.2018 13:10 26,7 C 18,8 C 16,5 C 41 % 57 % 1023,3 hPa 0,0 l/m 1,8 km/h (1 Bft) S-SW 202 10,1 C 18,8 C 3,9 km/h (1 Bft)
17.10.2018 13:08 26,7 C 18,6 C 16,4 C 41 % 57 % 1023,3 hPa 0,0 l/m 1,6 km/h (1 Bft) SW 225 9,9 C 18,6 C 6,0 km/h (2 Bft)
17.10.2018 13:06 26,7 C 19,1 C 16,6 C 41 % 58 % 1023,3 hPa 0,0 l/m 1,3 km/h (1 Bft) O-SO 112 10,6 C 19,1 C 6,0 km/h (2 Bft)
17.10.2018 13:04 26,7 C 18,9 C 16,9 C 41 % 59 % 1023,3 hPa 0,0 l/m 1,0 km/h (0 Bft) S 180 10,7 C 18,9 C 5,8 km/h (2 Bft)
17.10.2018 13:02 26,7 C 18,4 C 16,8 C 41 % 59 % 1023,4 hPa 0,0 l/m 0,8 km/h (0 Bft) SW 225 10,2 C 18,4 C 3,7 km/h (1 Bft)
17.10.2018 13:00 26,7 C 18,3 C 16,9 C 41 % 59 % 1023,4 hPa 0,0 l/m 0,8 km/h (0 Bft) W-SW 247 10,1 C 18,3 C 3,7 km/h (1 Bft)
17.10.2018 12:58 26,7 C 18,0 C 16,7 C 41 % 58 % 1023,4 hPa 0,0 l/m 1,4 km/h (1 Bft) SW 225 9,6 C 18,0 C 1,9 km/h (1 Bft)
17.10.2018 12:56 26,7 C 18,4 C 16,8 C 41 % 59 % 1023,4 hPa 0,0 l/m 1,4 km/h (1 Bft) SW 225 10,2 C 18,4 C 4,8 km/h (1 Bft)
17.10.2018 12:54 26,7 C 18,2 C 16,6 C 41 % 59 % 1023,4 hPa 0,0 l/m 2,1 km/h (1 Bft) S 180 10,1 C 18,2 C 4,8 km/h (1 Bft)
17.10.2018 12:52 26,7 C 17,8 C 16,4 C 41 % 59 % 1023,4 hPa 0,0 l/m 1,6 km/h (1 Bft) SW 225 9,7 C 17,8 C 2,1 km/h (1 Bft)
17.10.2018 12:50 26,7 C 18,2 C 16,6 C 41 % 59 % 1023,4 hPa 0,0 l/m 1,6 km/h (1 Bft) SW 225 10,1 C 18,2 C 7,5 km/h (2 Bft)
17.10.2018 12:48 26,7 C 18,2 C 16,4 C 41 % 59 % 1023,4 hPa 0,0 l/m 1,4 km/h (1 Bft) S 180 10,1 C 18,2 C 7,5 km/h (2 Bft)
17.10.2018 12:46 26,7 C 17,9 C 16,3 C 41 % 59 % 1023,4 hPa 0,0 l/m 0,8 km/h (0 Bft) W 270 9,8 C 17,9 C 3,5 km/h (1 Bft)
17.10.2018 12:44 26,7 C 18,1 C 16,6 C 41 % 59 % 1023,4 hPa 0,0 l/m 0,3 km/h (0 Bft) S-SW 202 10,0 C 18,1 C 3,5 km/h (1 Bft)
17.10.2018 12:42 26,7 C 18,2 C 16,6 C 41 % 60 % 1023,8 hPa 0,0 l/m 0,6 km/h (0 Bft) SW 225 10,3 C 18,2 C 0,0 km/h (0 Bft)
17.10.2018 12:40 26,7 C 18,3 C 16,4 C 41 % 60 % 1023,8 hPa 0,0 l/m 1,0 km/h (0 Bft) S-SW 202 10,4 C 18,3 C 0,0 km/h (0 Bft)
17.10.2018 12:38 26,7 C 18,3 C 16,4 C 41 % 60 % 1023,8 hPa 0,0 l/m 1,0 km/h (0 Bft) SW 225 10,4 C 18,3 C 0,0 km/h (0 Bft)
17.10.2018 12:36 26,6 C 18,0 C 15,9 C 41 % 61 % 1023,8 hPa 0,0 l/m 1,3 km/h (1 Bft) W-SW 247 10,4 C 18,0 C 0,0 km/h (0 Bft)
17.10.2018 12:34 26,7 C 17,6 C 15,8 C 41 % 61 % 1023,8 hPa 0,0 l/m 1,9 km/h (1 Bft) SW 225 10,0 C 17,6 C 2,5 km/h (1 Bft)
17.10.2018 12:32 26,6 C 17,5 C 15,7 C 41 % 61 % 1023,8 hPa 0,0 l/m 2,9 km/h (1 Bft) S-SW 202 9,9 C 17,5 C 2,5 km/h (1 Bft)
17.10.2018 12:30 26,6 C 17,6 C 15,7 C 41 % 61 % 1023,8 hPa 0,0 l/m 3,1 km/h (1 Bft) S 180 10,0 C 17,6 C 2,3 km/h (1 Bft)
17.10.2018 12:28 26,6 C 17,4 C 15,6 C 41 % 61 % 1023,8 hPa 0,0 l/m 4,2 km/h (1 Bft) SW 225 9,8 C 17,4 C 5,8 km/h (2 Bft)
17.10.2018 12:26 26,6 C 17,3 C 15,5 C 41 % 61 % 1023,8 hPa 0,0 l/m 4,3 km/h (1 Bft) SO 135 9,7 C 17,3 C 5,8 km/h (2 Bft)
17.10.2018 12:24 26,7 C 17,4 C 15,4 C 41 % 61 % 1023,8 hPa 0,0 l/m 4,0 km/h (1 Bft) S 180 9,8 C 17,4 C 7,0 km/h (2 Bft)
17.10.2018 12:22 26,6 C 17,5 C 15,4 C 41 % 62 % 1024,0 hPa 0,0 l/m 4,0 km/h (1 Bft) S 180 10,1 C 17,5 C 8,3 km/h (2 Bft)
17.10.2018 12:20 26,6 C 17,3 C 15,4 C 41 % 62 % 1024,0 hPa 0,0 l/m 3,9 km/h (1 Bft) SO 135 9,9 C 17,3 C 8,3 km/h (2 Bft)
17.10.2018 12:18 26,6 C 17,2 C 15,0 C 41 % 63 % 1024,0 hPa 0,0 l/m 3,7 km/h (1 Bft) S 180 10,1 C 17,2 C 7,5 km/h (2 Bft)
17.10.2018 12:16 26,6 C 16,9 C 15,0 C 41 % 63 % 1024,0 hPa 0,0 l/m 3,7 km/h (1 Bft) S-SO 157 9,8 C 16,9 C 6,0 km/h (2 Bft)
17.10.2018 12:14 26,6 C 16,5 C 14,9 C 41 % 63 % 1024,0 hPa 0,0 l/m 4,5 km/h (1 Bft) SO 135 9,4 C 16,5 C 6,0 km/h (2 Bft)
17.10.2018 12:12 26,6 C 16,5 C 14,9 C 41 % 63 % 1024,0 hPa 0,0 l/m 4,7 km/h (1 Bft) SO 135 9,4 C 16,5 C 5,0 km/h (1 Bft)
17.10.2018 12:10 26,6 C 15,6 C 14,7 C 41 % 67 % 1024,0 hPa 0,0 l/m 4,2 km/h (1 Bft) SO 135 9,5 C 15,6 C 4,2 km/h (1 Bft)
17.10.2018 12:08 26,6 C 15,6 C 14,7 C 41 % 67 % 1024,0 hPa 0,0 l/m 4,2 km/h (1 Bft) SO 135 9,5 C 15,6 C 4,2 km/h (1 Bft)
17.10.2018 12:06 26,6 C 15,6 C 14,7 C 41 % 67 % 1024,0 hPa 0,0 l/m 4,2 km/h (1 Bft) SO 135 9,5 C 15,6 C 4,2 km/h (1 Bft)
17.10.2018 12:04 26,6 C 15,6 C 14,7 C 41 % 67 % 1024,0 hPa 0,0 l/m 4,2 km/h (1 Bft) SO 135 9,5 C 15,6 C 4,2 km/h (1 Bft)
17.10.2018 12:02 26,6 C 15,6 C 14,7 C 41 % 67 % 1024,0 hPa 0,0 l/m 4,2 km/h (1 Bft) SO 135 9,5 C 15,6 C 6,8 km/h (2 Bft)
17.10.2018 12:00 26,6 C 15,6 C 14,7 C 41 % 67 % 1024,0 hPa 0,0 l/m 4,0 km/h (1 Bft) SO 135 9,5 C 15,6 C 10,2 km/h (2 Bft)
17.10.2018 11:58 26,6 C 15,4 C 14,7 C 41 % 67 % 1024,0 hPa 0,0 l/m 2,9 km/h (1 Bft) SO 135 9,3 C 15,4 C 10,2 km/h (2 Bft)
17.10.2018 11:56 26,6 C 15,5 C 14,7 C 41 % 68 % 1024,0 hPa 0,0 l/m 2,6 km/h (1 Bft) O-SO 112 9,6 C 15,5 C 7,7 km/h (2 Bft)
17.10.2018 11:54 26,6 C 15,6 C 14,9 C 41 % 69 % 1024,0 hPa 0,0 l/m 2,3 km/h (1 Bft) O 90 9,9 C 15,6 C 7,7 km/h (2 Bft)
17.10.2018 11:52 26,6 C 15,5 C 14,7 C 41 % 69 % 1024,0 hPa 0,0 l/m 2,7 km/h (1 Bft) S-SW 202 9,8 C 15,5 C 3,1 km/h (1 Bft)
17.10.2018 11:50 26,6 C 15,5 C 14,6 C 41 % 69 % 1024,0 hPa 0,0 l/m 2,9 km/h (1 Bft) S-SW 202 9,8 C 15,5 C 3,3 km/h (1 Bft)
17.10.2018 11:48 26,5 C 15,2 C 14,1 C 41 % 70 % 1024,0 hPa 0,0 l/m 2,7 km/h (1 Bft) S-SW 202 9,8 C 15,2 C 6,6 km/h (2 Bft)
17.10.2018 11:46 26,6 C 15,0 C 13,7 C 41 % 70 % 1024,0 hPa 0,0 l/m 2,7 km/h (1 Bft) SW 225 9,6 C 15,0 C 6,6 km/h (2 Bft)
17.10.2018 11:44 26,6 C 14,9 C 13,6 C 41 % 70 % 1024,0 hPa 0,0 l/m 2,4 km/h (1 Bft) SO 135 9,5 C 14,9 C 7,0 km/h (2 Bft)
17.10.2018 11:42 26,6 C 14,7 C 13,4 C 41 % 70 % 1024,2 hPa 0,0 l/m 1,8 km/h (1 Bft) S 180 9,3 C 14,7 C 7,9 km/h (2 Bft)
17.10.2018 11:40 26,6 C 14,4 C 13,0 C 41 % 70 % 1024,2 hPa 0,0 l/m 1,8 km/h (1 Bft) S 180 9,0 C 14,4 C 7,9 km/h (2 Bft)
17.10.2018 11:38 26,5 C 14,4 C 13,0 C 41 % 70 % 1024,2 hPa 0,0 l/m 1,3 km/h (1 Bft) O-SO 112 9,0 C 14,4 C 4,8 km/h (1 Bft)
17.10.2018 11:36 26,6 C 14,4 C 12,9 C 41 % 70 % 1024,2 hPa 0,0 l/m 1,3 km/h (1 Bft) O-SO 112 9,0 C 14,4 C 4,8 km/h (1 Bft)
17.10.2018 11:34 26,5 C 14,3 C 12,7 C 41 % 71 % 1024,2 hPa 0,0 l/m 1,0 km/h (0 Bft) O-SO 112 9,1 C 14,3 C 3,5 km/h (1 Bft)
17.10.2018 11:32 26,5 C 14,3 C 12,9 C 41 % 71 % 1024,2 hPa 0,0 l/m 1,1 km/h (1 Bft) O-SO 112 9,1 C 14,3 C 3,5 km/h (1 Bft)
17.10.2018 11:30 26,6 C 14,3 C 13,1 C 41 % 71 % 1024,2 hPa 0,0 l/m 0,8 km/h (0 Bft) SO 135 9,1 C 14,3 C 3,5 km/h (1 Bft)
17.10.2018 11:28 26,6 C 14,2 C 13,3 C 41 % 71 % 1024,2 hPa 0,0 l/m 1,1 km/h (1 Bft) O-SO 112 9,0 C 14,2 C 0,0 km/h (0 Bft)
17.10.2018 11:26 26,5 C 14,0 C 13,1 C 41 % 71 % 1024,2 hPa 0,0 l/m 1,1 km/h (1 Bft) SW 225 8,8 C 14,0 C 2,3 km/h (1 Bft)
17.10.2018 11:24 26,5 C 13,9 C 12,8 C 41 % 72 % 1024,2 hPa 0,0 l/m 1,3 km/h (1 Bft) NW 315 8,9 C 13,9 C 5,8 km/h (2 Bft)
17.10.2018 11:22 26,5 C 13,8 C 12,2 C 41 % 72 % 1024,2 hPa 0,0 l/m 1,4 km/h (1 Bft) S-SW 202 8,8 C 13,8 C 5,8 km/h (2 Bft)
17.10.2018 11:20 26,5 C 13,6 C 12,0 C 41 % 72 % 1024,2 hPa 0,0 l/m 2,1 km/h (1 Bft) SO 135 8,6 C 13,6 C 5,0 km/h (1 Bft)
17.10.2018 11:18 26,5 C 13,6 C 12,0 C 41 % 72 % 1024,2 hPa 0,0 l/m 2,6 km/h (1 Bft) O 90 8,6 C 13,6 C 5,0 km/h (1 Bft)
17.10.2018 11:16 26,5 C 13,5 C 11,9 C 41 % 72 % 1024,2 hPa 0,0 l/m 2,9 km/h (1 Bft) S-SW 202 8,6 C 13,5 C 3,7 km/h (1 Bft)
17.10.2018 11:14 26,5 C 13,4 C 12,0 C 41 % 72 % 1024,2 hPa 0,0 l/m 3,5 km/h (1 Bft) SO 135 8,5 C 13,4 C 5,2 km/h (1 Bft)
17.10.2018 11:12 26,5 C 13,4 C 12,1 C 41 % 72 % 1024,2 hPa 0,0 l/m 4,0 km/h (1 Bft) O-SO 112 8,5 C 13,4 C 5,2 km/h (1 Bft)
17.10.2018 11:10 26,4 C 13,4 C 12,3 C 42 % 72 % 1024,2 hPa 0,0 l/m 3,7 km/h (1 Bft) S 180 8,5 C 13,4 C 5,0 km/h (1 Bft)
17.10.2018 11:08 26,4 C 13,4 C 12,5 C 42 % 72 % 1024,2 hPa 0,0 l/m 3,4 km/h (1 Bft) SO 135 8,5 C 13,4 C 5,4 km/h (1 Bft)
17.10.2018 11:06 26,4 C 13,4 C 12,5 C 42 % 73 % 1024,2 hPa 0,0 l/m 3,4 km/h (1 Bft) S 180 8,7 C 13,4 C 6,2 km/h (2 Bft)
17.10.2018 11:04 26,4 C 13,3 C 12,2 C 42 % 73 % 1024,2 hPa 0,0 l/m 3,4 km/h (1 Bft) S 180 8,6 C 13,3 C 8,5 km/h (2 Bft)
17.10.2018 11:02 26,4 C 13,2 C 11,9 C 42 % 73 % 1024,0 hPa 0,0 l/m 2,9 km/h (1 Bft) S-SO 157 8,5 C 13,2 C 8,5 km/h (2 Bft)
17.10.2018 11:00 26,4 C 13,1 C 11,8 C 42 % 73 % 1024,0 hPa 0,0 l/m 2,7 km/h (1 Bft) S-SW 202 8,4 C 13,1 C 3,7 km/h (1 Bft)
17.10.2018 10:58 26,4 C 13,1 C 11,5 C 42 % 73 % 1024,0 hPa 0,0 l/m 2,9 km/h (1 Bft) S 180 8,4 C 13,1 C 6,2 km/h (2 Bft)
17.10.2018 10:56 26,4 C 13,0 C 11,4 C 42 % 73 % 1024,0 hPa 0,0 l/m 3,4 km/h (1 Bft) S 180 8,3 C 13,0 C 6,2 km/h (2 Bft)
17.10.2018 10:54 26,4 C 12,9 C 11,4 C 42 % 73 % 1024,0 hPa 0,0 l/m 3,2 km/h (1 Bft) O-SO 112 8,2 C 12,9 C 5,8 km/h (2 Bft)
17.10.2018 10:52 26,2 C 12,9 C 11,7 C 42 % 73 % 1024,0 hPa 0,0 l/m 3,2 km/h (1 Bft) SO 135 8,2 C 12,9 C 4,6 km/h (1 Bft)
17.10.2018 10:50 26,2 C 12,8 C 11,7 C 42 % 74 % 1024,0 hPa 0,0 l/m 3,1 km/h (1 Bft) S-SO 157 8,3 C 12,8 C 4,6 km/h (1 Bft)
17.10.2018 10:48 26,3 C 12,8 C 11,7 C 42 % 74 % 1024,0 hPa 0,0 l/m 2,7 km/h (1 Bft) O-SO 112 8,3 C 12,8 C 7,1 km/h (2 Bft)
17.10.2018 10:46 26,3 C 12,7 C 11,6 C 42 % 74 % 1024,0 hPa 0,0 l/m 2,7 km/h (1 Bft) SO 135 8,2 C 12,7 C 7,1 km/h (2 Bft)
17.10.2018 10:44 26,3 C 12,7 C 11,6 C 42 % 74 % 1024,0 hPa 0,0 l/m 2,7 km/h (1 Bft) S-SO 157 8,2 C 12,7 C 5,6 km/h (1 Bft)
17.10.2018 10:42 26,2 C 12,6 C 11,8 C 42 % 75 % 1023,9 hPa 0,0 l/m 2,7 km/h (1 Bft) SO 135 8,3 C 12,6 C 5,0 km/h (1 Bft)
17.10.2018 10:40 26,2 C 12,5 C 11,6 C 42 % 75 % 1023,9 hPa 0,0 l/m 2,9 km/h (1 Bft) S-SW 202 8,2 C 12,5 C 3,3 km/h (1 Bft)
17.10.2018 10:38 26,2 C 12,3 C 11,4 C 42 % 75 % 1023,9 hPa 0,0 l/m 2,7 km/h (1 Bft) S-SW 202 8,0 C 12,3 C 3,5 km/h (1 Bft)
17.10.2018 10:36 26,2 C 12,3 C 11,2 C 42 % 75 % 1023,9 hPa 0,0 l/m 2,3 km/h (1 Bft) SO 135 8,0 C 12,3 C 6,4 km/h (2 Bft)
17.10.2018 10:34 26,2 C 12,2 C 11,2 C 42 % 75 % 1023,9 hPa 0,0 l/m 1,6 km/h (1 Bft) S-SO 157 7,9 C 12,2 C 7,1 km/h (2 Bft)
17.10.2018 10:32 26,2 C 12,2 C 11,4 C 42 % 75 % 1023,9 hPa 0,0 l/m 1,3 km/h (1 Bft) SO 135 7,9 C 12,2 C 7,1 km/h (2 Bft)
17.10.2018 10:30 26,1 C 12,1 C 11,3 C 42 % 75 % 1023,9 hPa 0,0 l/m 1,1 km/h (1 Bft) S 180 7,8 C 12,1 C 6,6 km/h (2 Bft)
17.10.2018 10:28 26,1 C 12,0 C 11,2 C 42 % 75 % 1023,9 hPa 0,0 l/m 1,0 km/h (0 Bft) S-SW 202 7,7 C 12,0 C 0,0 km/h (0 Bft)
17.10.2018 10:26 26,1 C 11,9 C 11,2 C 42 % 76 % 1023,9 hPa 0,0 l/m 1,4 km/h (1 Bft) S-SW 202 7,8 C 11,9 C 2,7 km/h (1 Bft)
17.10.2018 10:24 26,1 C 11,9 C 11,3 C 42 % 76 % 1023,9 hPa 0,0 l/m 2,1 km/h (1 Bft) S-SW 202 7,8 C 11,9 C 4,1 km/h (1 Bft)
17.10.2018 10:22 26,1 C 11,8 C 11,2 C 42 % 76 % 1023,8 hPa 0,0 l/m 2,7 km/h (1 Bft) S 180 7,7 C 11,8 C 4,1 km/h (1 Bft)
17.10.2018 10:20 26,0 C 11,6 C 11,1 C 42 % 76 % 1023,8 hPa 0,0 l/m 2,7 km/h (1 Bft) SW 225 7,5 C 11,6 C 3,3 km/h (1 Bft)
17.10.2018 10:18 26,0 C 11,5 C 11,0 C 42 % 76 % 1023,8 hPa 0,0 l/m 3,1 km/h (1 Bft) SW 225 7,4 C 11,5 C 2,9 km/h (1 Bft)
17.10.2018 10:16 26,0 C 11,4 C 11,1 C 42 % 76 % 1023,8 hPa 0,0 l/m 3,2 km/h (1 Bft) SW 225 7,3 C 11,4 C 2,9 km/h (1 Bft)
17.10.2018 10:14 26,0 C 11,3 C 11,0 C 42 % 76 % 1023,8 hPa 0,0 l/m 3,1 km/h (1 Bft) S-SW 202 7,2 C 11,3 C 11,2 km/h (2 Bft)
17.10.2018 10:12 26,0 C 11,2 C 11,0 C 42 % 76 % 1023,8 hPa 0,0 l/m 2,6 km/h (1 Bft) S 180 7,1 C 11,2 C 11,2 km/h (2 Bft)
17.10.2018 10:10 26,0 C 11,0 C 10,9 C 42 % 76 % 1023,8 hPa 0,0 l/m 1,4 km/h (1 Bft) S-SW 202 6,9 C 11,0 C 7,7 km/h (2 Bft)
17.10.2018 10:08 25,9 C 10,8 C 10,8 C 42 % 77 % 1023,8 hPa 0,0 l/m 0,8 km/h (0 Bft) S 180 6,9 C 10,8 C 7,7 km/h (2 Bft)
17.10.2018 10:06 25,9 C 10,7 C 10,6 C 42 % 77 % 1023,8 hPa 0,0 l/m 0,6 km/h (0 Bft) S 180 6,8 C 10,7 C 5,0 km/h (1 Bft)
17.10.2018 10:04 25,9 C 10,4 C 10,4 C 42 % 76 % 1023,8 hPa 0,0 l/m 0,6 km/h (0 Bft) S-SW 202 6,4 C 10,4 C 5,0 km/h (1 Bft)
17.10.2018 10:03 25,9 C 10,2 C 10,4 C 42 % 76 % 1023,9 hPa 0,0 l/m 0,5 km/h (0 Bft) S-SW 202 6,2 C 10,2 C 0,0 km/h (0 Bft)
17.10.2018 10:01 25,9 C 10,2 C 10,4 C 42 % 76 % 1023,9 hPa 0,0 l/m 0,5 km/h (0 Bft) S-SW 202 6,2 C 10,2 C 0,0 km/h (0 Bft)
17.10.2018 10:00 25,8 C 9,7 C 9,8 C 42 % 76 % 1023,9 hPa 0,0 l/m 0,5 km/h (0 Bft) W-NW 292 5,7 C 9,7 C 1,9 km/h (1 Bft)
17.10.2018 09:58 25,8 C 9,6 C 9,8 C 42 % 76 % 1023,9 hPa 0,0 l/m 0,5 km/h (0 Bft) S-SW 202 5,6 C 9,6 C 1,9 km/h (1 Bft)
17.10.2018 09:56 25,8 C 9,5 C 9,8 C 42 % 76 % 1023,9 hPa 0,0 l/m 0,5 km/h (0 Bft) S 180 5,5 C 9,5 C 3,9 km/h (1 Bft)
17.10.2018 09:54 25,8 C 9,3 C 9,5 C 42 % 76 % 1023,9 hPa 0,0 l/m 0,6 km/h (0 Bft) SW 225 5,3 C 9,3 C 3,9 km/h (1 Bft)
17.10.2018 09:52 25,8 C 9,0 C 9,3 C 42 % 76 % 1023,9 hPa 0,0 l/m 0,2 km/h (0 Bft) S 180 5,0 C 9,0 C 0,0 km/h (0 Bft)
17.10.2018 09:50 25,8 C 8,9 C 9,2 C 42 % 76 % 1023,9 hPa 0,0 l/m 0,2 km/h (0 Bft) W-SW 247 4,9 C 8,9 C 0,0 km/h (0 Bft)
17.10.2018 09:48 25,8 C 8,7 C 9,2 C 42 % 76 % 1023,9 hPa 0,0 l/m 0,3 km/h (0 Bft) S-SW 202 4,7 C 8,7 C 2,1 km/h (1 Bft)
17.10.2018 09:46 25,8 C 8,6 C 9,1 C 42 % 76 % 1023,9 hPa 0,0 l/m 0,5 km/h (0 Bft) NW 315 4,6 C 8,6 C 2,1 km/h (1 Bft)
17.10.2018 09:44 25,7 C 8,5 C 9,0 C 42 % 76 % 1023,9 hPa 0,0 l/m 0,6 km/h (0 Bft) W-NW 292 4,5 C 8,5 C 0,0 km/h (0 Bft)
17.10.2018 09:43 25,7 C 8,4 C 8,8 C 42 % 76 % 1023,8 hPa 0,0 l/m 1,0 km/h (0 Bft) NW 315 4,4 C 8,4 C 0,0 km/h (0 Bft)
17.10.2018 09:40 25,7 C 8,3 C 8,8 C 42 % 76 % 1023,8 hPa 0,0 l/m 1,0 km/h (0 Bft) NW 315 4,3 C 8,3 C 0,0 km/h (0 Bft)
17.10.2018 09:38 25,7 C 8,2 C 8,6 C 42 % 76 % 1023,8 hPa 0,0 l/m 1,0 km/h (0 Bft) NW 315 4,2 C 8,2 C 2,7 km/h (1 Bft)
17.10.2018 09:36 25,6 C 8,1 C 8,6 C 42 % 76 % 1023,8 hPa 0,0 l/m 0,8 km/h (0 Bft) W-NW 292 4,1 C 8,1 C 2,9 km/h (1 Bft)
17.10.2018 09:34 25,6 C 8,0 C 8,6 C 42 % 75 % 1023,8 hPa 0,0 l/m 0,6 km/h (0 Bft) NW 315 3,8 C 8,0 C 2,9 km/h (1 Bft)
17.10.2018 09:32 25,6 C 7,9 C 8,5 C 42 % 75 % 1023,8 hPa 0,0 l/m 0,3 km/h (0 Bft) NW 315 3,7 C 7,9 C 2,5 km/h (1 Bft)
17.10.2018 09:30 25,6 C 7,8 C 8,4 C 42 % 75 % 1023,8 hPa 0,0 l/m 0,2 km/h (0 Bft) S 180 3,7 C 7,8 C 0,0 km/h (0 Bft)
17.10.2018 09:28 25,6 C 7,7 C 8,2 C 42 % 75 % 1023,8 hPa 0,0 l/m 0,3 km/h (0 Bft) S 180 3,6 C 7,7 C 2,1 km/h (1 Bft)
17.10.2018 09:26 25,6 C 7,6 C 8,2 C 42 % 75 % 1023,8 hPa 0,0 l/m 0,5 km/h (0 Bft) W-NW 292 3,5 C 7,6 C 2,1 km/h (1 Bft)
17.10.2018 09:24 25,6 C 7,5 C 8,0 C 42 % 75 % 1023,8 hPa 0,0 l/m 1,0 km/h (0 Bft) NW 315 3,4 C 7,5 C 4,1 km/h (1 Bft)
17.10.2018 09:22 25,6 C 7,5 C 7,9 C 42 % 75 % 1023,3 hPa 0,0 l/m 1,0 km/h (0 Bft) NW 315 3,4 C 7,5 C 2,1 km/h (1 Bft)
17.10.2018 09:20 25,6 C 7,4 C 7,8 C 42 % 75 % 1023,3 hPa 0,0 l/m 0,8 km/h (0 Bft) NW 315 3,3 C 7,4 C 2,7 km/h (1 Bft)
17.10.2018 09:18 25,6 C 7,4 C 7,8 C 42 % 75 % 1023,3 hPa 0,0 l/m 0,8 km/h (0 Bft) NW 315 3,3 C 7,4 C 3,5 km/h (1 Bft)
17.10.2018 09:16 25,5 C 7,4 C 7,9 C 42 % 75 % 1023,3 hPa 0,0 l/m 0,8 km/h (0 Bft) NW 315 3,3 C 7,4 C 3,5 km/h (1 Bft)
17.10.2018 09:14 25,5 C 7,4 C 7,9 C 42 % 75 % 1023,3 hPa 0,0 l/m 0,2 km/h (0 Bft) NW 315 3,3 C 7,4 C 3,3 km/h (1 Bft)
17.10.2018 09:12 25,5 C 7,2 C 8,0 C 42 % 75 % 1023,3 hPa 0,0 l/m 0,0 km/h (0 Bft) W-NW 292 3,1 C 7,2 C 0,0 km/h (0 Bft)
17.10.2018 09:10 25,5 C 7,1 C 8,0 C 42 % 75 % 1023,3 hPa 0,0 l/m 0,0 km/h (0 Bft) S 180 3,0 C 7,1 C 0,0 km/h (0 Bft)
17.10.2018 09:08 25,5 C 7,1 C 8,0 C 42 % 75 % 1023,3 hPa 0,0 l/m 0,0 km/h (0 Bft) S 180 3,0 C 7,1 C 0,0 km/h (0 Bft)
17.10.2018 09:06 25,5 C 7,0 C 7,9 C 42 % 75 % 1023,3 hPa 0,0 l/m 0,0 km/h (0 Bft) S 180 2,9 C 7,0 C 0,0 km/h (0 Bft)
17.10.2018 09:04 25,4 C 6,9 C 7,9 C 43 % 75 % 1023,3 hPa 0,0 l/m 0,0 km/h (0 Bft) S 180 2,8 C 6,9 C 0,0 km/h (0 Bft)
17.10.2018 09:02 25,4 C 6,8 C 7,7 C 42 % 75 % 1023,4 hPa 0,0 l/m 0,0 km/h (0 Bft) S 180 2,7 C 6,8 C 0,0 km/h (0 Bft)
17.10.2018 09:00 25,4 C 6,8 C 7,6 C 42 % 75 % 1023,4 hPa 0,0 l/m 0,0 km/h (0 Bft) S 180 2,7 C 6,8 C 0,0 km/h (0 Bft)
17.10.2018 08:58 25,4 C 6,7 C 7,6 C 42 % 75 % 1023,4 hPa 0,0 l/m 0,0 km/h (0 Bft) S 180 2,6 C 6,7 C 0,0 km/h (0 Bft)
17.10.2018 08:56 25,4 C 6,5 C 7,4 C 42 % 75 % 1023,4 hPa 0,0 l/m 0,0 km/h (0 Bft) S 180 2,4 C 6,5 C 0,0 km/h (0 Bft)
17.10.2018 08:54 25,4 C 6,4 C 7,3 C 42 % 75 % 1023,4 hPa 0,0 l/m 0,0 km/h (0 Bft) SO 135 2,3 C 6,4 C 0,0 km/h (0 Bft)
17.10.2018 08:52 25,4 C 6,4 C 7,2 C 42 % 75 % 1023,4 hPa 0,0 l/m 0,0 km/h (0 Bft) S 180 2,3 C 6,4 C 0,0 km/h (0 Bft)
17.10.2018 08:50 25,2 C 6,3 C 7,1 C 42 % 75 % 1023,4 hPa 0,0 l/m 0,0 km/h (0 Bft) S 180 2,2 C 6,3 C 0,0 km/h (0 Bft)
17.10.2018 08:48 25,4 C 6,3 C 7,1 C 42 % 75 % 1023,4 hPa 0,0 l/m 0,0 km/h (0 Bft) S 180 2,2 C 6,3 C 0,0 km/h (0 Bft)
17.10.2018 08:46 25,2 C 6,2 C 7,0 C 42 % 75 % 1023,4 hPa 0,0 l/m 0,0 km/h (0 Bft) S 180 2,1 C 6,2 C 0,0 km/h (0 Bft)
17.10.2018 08:44 25,2 C 6,2 C 6,8 C 42 % 75 % 1023,4 hPa 0,0 l/m 0,0 km/h (0 Bft) S 180 2,1 C 6,2 C 0,0 km/h (0 Bft)
17.10.2018 08:42 25,2 C 6,1 C 6,8 C 42 % 75 % 1023,4 hPa 0,0 l/m 0,0 km/h (0 Bft) S 180 2,0 C 6,1 C 0,0 km/h (0 Bft)
17.10.2018 08:40 25,2 C 6,1 C 6,8 C 42 % 75 % 1023,4 hPa 0,0 l/m 0,0 km/h (0 Bft) S 180 2,0 C 6,1 C 0,0 km/h (0 Bft)
17.10.2018 08:38 25,3 C 6,1 C 6,8 C 42 % 75 % 1023,4 hPa 0,0 l/m 0,0 km/h (0 Bft) S 180 2,0 C 6,1 C 0,0 km/h (0 Bft)
17.10.2018 08:36 25,2 C 6,0 C 6,6 C 42 % 74 % 1023,4 hPa 0,0 l/m 0,0 km/h (0 Bft) S 180 1,7 C 6,0 C 0,0 km/h (0 Bft)
17.10.2018 08:34 25,3 C 6,0 C 6,6 C 42 % 74 % 1023,4 hPa 0,0 l/m 0,0 km/h (0 Bft) S 180 1,7 C 6,0 C 0,0 km/h (0 Bft)
17.10.2018 08:32 25,3 C 6,0 C 6,6 C 42 % 74 % 1023,4 hPa 0,0 l/m 0,0 km/h (0 Bft) S 180 1,7 C 6,0 C 0,0 km/h (0 Bft)
17.10.2018 08:30 25,3 C 5,9 C 6,6 C 42 % 76 % 1023,4 hPa 0,0 l/m 0,0 km/h (0 Bft) S 180 2,0 C 5,9 C 0,0 km/h (0 Bft)
17.10.2018 08:28 25,3 C 5,9 C 6,6 C 42 % 76 % 1023,4 hPa 0,0 l/m 0,0 km/h (0 Bft) S 180 2,0 C 5,9 C 0,0 km/h (0 Bft)
17.10.2018 08:26 25,3 C 5,9 C 6,5 C 42 % 76 % 1023,4 hPa 0,0 l/m 0,0 km/h (0 Bft) O-SO 112 2,0 C 5,9 C 0,0 km/h (0 Bft)
17.10.2018 08:24 25,2 C 5,9 C 6,6 C 42 % 76 % 1023,4 hPa 0,0 l/m 0,0 km/h (0 Bft) O 90 2,0 C 5,9 C 0,0 km/h (0 Bft)
17.10.2018 08:22 25,3 C 5,9 C 6,4 C 42 % 76 % 1023,4 hPa 0,0 l/m 0,0 km/h (0 Bft) O 90 2,0 C 5,9 C 0,0 km/h (0 Bft)
17.10.2018 08:20 25,2 C 5,8 C 6,4 C 42 % 76 % 1023,4 hPa 0,0 l/m 0,0 km/h (0 Bft) O 90 1,9 C 5,8 C 0,0 km/h (0 Bft)
17.10.2018 08:18 25,2 C 5,8 C 6,3 C 42 % 76 % 1023,4 hPa 0,0 l/m 0,0 km/h (0 Bft) O 90 1,9 C 5,8 C 0,0 km/h (0 Bft)
17.10.2018 08:16 25,3 C 5,8 C 6,3 C 42 % 76 % 1023,4 hPa 0,0 l/m 0,0 km/h (0 Bft) O 90 1,9 C 5,8 C 0,0 km/h (0 Bft)
17.10.2018 08:14 25,2 C 5,9 C 6,4 C 42 % 76 % 1023,4 hPa 0,0 l/m 0,0 km/h (0 Bft) O 90 2,0 C 5,9 C 0,0 km/h (0 Bft)
17.10.2018 08:12 25,3 C 5,9 C 6,5 C 42 % 76 % 1023,4 hPa 0,0 l/m 0,0 km/h (0 Bft) O-NO 67 2,0 C 5,9 C 0,0 km/h (0 Bft)
17.10.2018 08:10 25,3 C 5,9 C 6,4 C 42 % 76 % 1023,4 hPa 0,0 l/m 0,0 km/h (0 Bft) O-NO 67 2,0 C 5,9 C 0,0 km/h (0 Bft)
17.10.2018 08:08 25,3 C 5,9 C 6,6 C 42 % 76 % 1023,4 hPa 0,0 l/m 0,0 km/h (0 Bft) O-NO 67 2,0 C 5,9 C 0,0 km/h (0 Bft)
17.10.2018 08:06 25,3 C 5,9 C 6,6 C 42 % 76 % 1023,4 hPa 0,0 l/m 0,0 km/h (0 Bft) O-NO 67 2,0 C 5,9 C 0,0 km/h (0 Bft)
17.10.2018 08:04 25,2 C 5,9 C 6,6 C 42 % 76 % 1023,4 hPa 0,0 l/m 0,0 km/h (0 Bft) O-NO 67 2,0 C 5,9 C 0,0 km/h (0 Bft)
17.10.2018 08:02 25,2 C 5,9 C 6,7 C 42 % 76 % 1023,1 hPa 0,0 l/m 0,0 km/h (0 Bft) O-NO 67 2,0 C 5,9 C 0,0 km/h (0 Bft)
17.10.2018 08:00 25,2 C 6,0 C 6,8 C 42 % 75 % 1023,1 hPa 0,0 l/m 0,0 km/h (0 Bft) O-NO 67 1,9 C 6,0 C 0,0 km/h (0 Bft)
17.10.2018 07:58 25,2 C 6,0 C 6,9 C 42 % 75 % 1023,1 hPa 0,0 l/m 0,0 km/h (0 Bft) O-NO 67 1,9 C 6,0 C 0,0 km/h (0 Bft)
17.10.2018 07:56 25,2 C 6,0 C 6,9 C 42 % 75 % 1023,1 hPa 0,0 l/m 0,0 km/h (0 Bft) O-NO 67 1,9 C 6,0 C 0,0 km/h (0 Bft)
17.10.2018 07:54 25,2 C 6,0 C 6,9 C 42 % 75 % 1023,1 hPa 0,0 l/m 0,0 km/h (0 Bft) O-NO 67 1,9 C 6,0 C 0,0 km/h (0 Bft)
17.10.2018 07:52 25,4 C 6,0 C 6,9 C 42 % 75 % 1023,1 hPa 0,0 l/m 0,0 km/h (0 Bft) O-NO 67 1,9 C 6,0 C 0,0 km/h (0 Bft)
17.10.2018 07:50 25,4 C 6,0 C 7,0 C 42 % 74 % 1023,1 hPa 0,0 l/m 0,0 km/h (0 Bft) O-NO 67 1,7 C 6,0 C 0,0 km/h (0 Bft)
17.10.2018 07:48 25,4 C 5,9 C 6,9 C 42 % 76 % 1023,1 hPa 0,0 l/m 0,0 km/h (0 Bft) O-NO 67 2,0 C 5,9 C 0,0 km/h (0 Bft)
17.10.2018 07:46 25,4 C 5,9 C 6,8 C 42 % 76 % 1023,1 hPa 0,0 l/m 0,0 km/h (0 Bft) O-NO 67 2,0 C 5,9 C 0,0 km/h (0 Bft)
17.10.2018 07:44 25,4 C 5,9 C 6,8 C 42 % 76 % 1023,1 hPa 0,0 l/m 0,0 km/h (0 Bft) O-NO 67 2,0 C 5,9 C 0,0 km/h (0 Bft)
17.10.2018 07:42 25,4 C 5,9 C 6,7 C 42 % 76 % 1023,1 hPa 0,0 l/m 0,0 km/h (0 Bft) S 180 2,0 C 5,9 C 0,0 km/h (0 Bft)
17.10.2018 07:40 25,4 C 5,9 C 6,7 C 42 % 76 % 1023,1 hPa 0,0 l/m 0,0 km/h (0 Bft) S-SW 202 2,0 C 5,9 C 0,0 km/h (0 Bft)
17.10.2018 07:38 25,4 C 5,9 C 6,6 C 42 % 76 % 1023,1 hPa 0,0 l/m 0,0 km/h (0 Bft) O-NO 67 2,0 C 5,9 C 0,0 km/h (0 Bft)
17.10.2018 07:36 25,4 C 6,0 C 6,7 C 42 % 74 % 1023,1 hPa 0,0 l/m 0,0 km/h (0 Bft) O-NO 67 1,7 C 6,0 C 0,0 km/h (0 Bft)
17.10.2018 07:34 25,4 C 6,0 C 6,8 C 42 % 74 % 1023,1 hPa 0,0 l/m 0,0 km/h (0 Bft) N-NW 337 1,7 C 6,0 C 0,0 km/h (0 Bft)
17.10.2018 07:32 25,4 C 6,0 C 6,9 C 42 % 74 % 1023,1 hPa 0,0 l/m 0,0 km/h (0 Bft) O-NO 67 1,7 C 6,0 C 0,0 km/h (0 Bft)
17.10.2018 07:30 25,4 C 6,0 C 6,9 C 42 % 74 % 1023,1 hPa 0,0 l/m 0,0 km/h (0 Bft) O-NO 67 1,7 C 6,0 C 0,0 km/h (0 Bft)
17.10.2018 07:28 25,4 C 6,0 C 6,9 C 43 % 74 % 1023,1 hPa 0,0 l/m 0,2 km/h (0 Bft) O-NO 67 1,7 C 6,0 C 0,0 km/h (0 Bft)
17.10.2018 07:26 25,4 C 6,0 C 6,9 C 43 % 74 % 1023,1 hPa 0,0 l/m 0,2 km/h (0 Bft) O-NO 67 1,7 C 6,0 C 0,0 km/h (0 Bft)
17.10.2018 07:24 25,5 C 6,0 C 7,0 C 43 % 74 % 1023,1 hPa 0,0 l/m 0,2 km/h (0 Bft) O-NO 67 1,7 C 6,0 C 0,0 km/h (0 Bft)
17.10.2018 07:22 25,5 C 6,0 C 7,0 C 43 % 74 % 1023,1 hPa 0,0 l/m 0,2 km/h (0 Bft) O-NO 67 1,7 C 6,0 C 0,0 km/h (0 Bft)
17.10.2018 07:20 25,5 C 5,9 C 7,0 C 43 % 76 % 1023,1 hPa 0,0 l/m 0,2 km/h (0 Bft) O-NO 67 2,0 C 5,9 C 0,0 km/h (0 Bft)
17.10.2018 07:18 25,5 C 5,8 C 6,8 C 43 % 76 % 1023,1 hPa 0,0 l/m 0,0 km/h (0 Bft) O-NO 67 1,9 C 5,8 C 0,0 km/h (0 Bft)
17.10.2018 07:16 25,5 C 5,8 C 6,8 C 43 % 76 % 1023,1 hPa 0,0 l/m 0,0 km/h (0 Bft) O-NO 67 1,9 C 5,8 C 0,0 km/h (0 Bft)
17.10.2018 07:14 25,5 C 5,8 C 6,8 C 43 % 76 % 1023,1 hPa 0,0 l/m 0,0 km/h (0 Bft) O-NO 67 1,9 C 5,8 C 0,0 km/h (0 Bft)
17.10.2018 07:12 25,5 C 5,8 C 6,7 C 43 % 76 % 1023,1 hPa 0,0 l/m 0,0 km/h (0 Bft) O-NO 67 1,9 C 5,8 C 0,0 km/h (0 Bft)
17.10.2018 07:10 25,5 C 5,8 C 6,7 C 43 % 76 % 1023,1 hPa 0,0 l/m 0,0 km/h (0 Bft) O-NO 67 1,9 C 5,8 C 0,0 km/h (0 Bft)
17.10.2018 07:08 25,5 C 5,7 C 6,6 C 43 % 76 % 1023,1 hPa 0,0 l/m 0,0 km/h (0 Bft) O-NO 67 1,8 C 5,7 C 0,0 km/h (0 Bft)
17.10.2018 07:06 25,5 C 5,8 C 6,6 C 43 % 76 % 1023,1 hPa 0,0 l/m 0,0 km/h (0 Bft) O-NO 67 1,9 C 5,8 C 0,0 km/h (0 Bft)
17.10.2018 07:04 25,5 C 5,8 C 6,6 C 43 % 76 % 1023,1 hPa 0,0 l/m 0,0 km/h (0 Bft) O-NO 67 1,9 C 5,8 C 0,0 km/h (0 Bft)
17.10.2018 07:02 25,6 C 5,8 C 6,5 C 43 % 76 % 1022,8 hPa 0,0 l/m 0,0 km/h (0 Bft) O-NO 67 1,9 C 5,8 C 0,0 km/h (0 Bft)
17.10.2018 07:00 25,5 C 5,8 C 6,6 C 43 % 76 % 1022,8 hPa 0,0 l/m 0,0 km/h (0 Bft) O-NO 67 1,9 C 5,8 C 0,0 km/h (0 Bft)
17.10.2018 06:58 25,6 C 5,8 C 6,6 C 43 % 76 % 1022,8 hPa 0,0 l/m 0,0 km/h (0 Bft) O-NO 67 1,9 C 5,8 C 0,0 km/h (0 Bft)
17.10.2018 06:56 25,6 C 5,8 C 6,7 C 43 % 76 % 1022,8 hPa 0,0 l/m 0,0 km/h (0 Bft) O-NO 67 1,9 C 5,8 C 0,0 km/h (0 Bft)
17.10.2018 06:54 25,6 C 5,8 C 6,6 C 43 % 76 % 1022,8 hPa 0,0 l/m 0,0 km/h (0 Bft) O-NO 67 1,9 C 5,8 C 0,0 km/h (0 Bft)
17.10.2018 06:52 25,6 C 5,8 C 6,6 C 43 % 76 % 1022,8 hPa 0,0 l/m 0,0 km/h (0 Bft) O-NO 67 1,9 C 5,8 C 0,0 km/h (0 Bft)
17.10.2018 06:50 25,6 C 5,8 C 6,6 C 43 % 76 % 1022,8 hPa 0,0 l/m 0,0 km/h (0 Bft) O-NO 67 1,9 C 5,8 C 0,0 km/h (0 Bft)
17.10.2018 06:48 25,6 C 5,9 C 6,5 C 43 % 76 % 1022,8 hPa 0,0 l/m 0,0 km/h (0 Bft) O-NO 67 2,0 C 5,9 C 0,0 km/h (0 Bft)
17.10.2018 06:46 25,6 C 5,9 C 6,5 C 43 % 76 % 1022,8 hPa 0,0 l/m 0,0 km/h (0 Bft) O-NO 67 2,0 C 5,9 C 0,0 km/h (0 Bft)
17.10.2018 06:44 25,6 C 5,9 C 6,6 C 43 % 76 % 1022,8 hPa 0,0 l/m 0,0 km/h (0 Bft) O-NO 67 2,0 C 5,9 C 0,0 km/h (0 Bft)
17.10.2018 06:42 25,6 C 6,0 C 6,8 C 43 % 74 % 1022,8 hPa 0,0 l/m 0,0 km/h (0 Bft) O-NO 67 1,7 C 6,0 C 0,0 km/h (0 Bft)
17.10.2018 06:40 25,6 C 6,1 C 7,0 C 43 % 74 % 1022,8 hPa 0,0 l/m 0,0 km/h (0 Bft) O-NO 67 1,8 C 6,1 C 0,0 km/h (0 Bft)
17.10.2018 06:38 25,6 C 6,1 C 6,9 C 43 % 74 % 1022,8 hPa 0,0 l/m 0,0 km/h (0 Bft) O-NO 67 1,8 C 6,1 C 0,0 km/h (0 Bft)
17.10.2018 06:36 25,6 C 6,1 C 7,0 C 43 % 74 % 1022,8 hPa 0,0 l/m 0,0 km/h (0 Bft) O-NO 67 1,8 C 6,1 C 0,0 km/h (0 Bft)
17.10.2018 06:34 25,6 C 6,1 C 7,0 C 43 % 74 % 1022,8 hPa 0,0 l/m 0,0 km/h (0 Bft) O-NO 67 1,8 C 6,1 C 0,0 km/h (0 Bft)
17.10.2018 06:32 25,6 C 6,2 C 7,0 C 43 % 74 % 1022,8 hPa 0,0 l/m 0,0 km/h (0 Bft) O-NO 67 1,9 C 6,2 C 0,0 km/h (0 Bft)
17.10.2018 06:30 25,6 C 6,2 C 7,0 C 43 % 74 % 1022,8 hPa 0,0 l/m 0,0 km/h (0 Bft) O-NO 67 1,9 C 6,2 C 0,0 km/h (0 Bft)
17.10.2018 06:28 25,6 C 6,2 C 7,0 C 43 % 74 % 1022,8 hPa 0,0 l/m 0,0 km/h (0 Bft) O-NO 67 1,9 C 6,2 C 0,0 km/h (0 Bft)
17.10.2018 06:26 25,6 C 6,2 C 7,1 C 44 % 74 % 1022,8 hPa 0,0 l/m 0,0 km/h (0 Bft) O-NO 67 1,9 C 6,2 C 0,0 km/h (0 Bft)
17.10.2018 06:24 25,6 C 6,2 C 7,1 C 44 % 74 % 1022,8 hPa 0,0 l/m 0,0 km/h (0 Bft) O-NO 67 1,9 C 6,2 C 0,0 km/h (0 Bft)
17.10.2018 06:22 25,6 C 6,2 C 7,0 C 44 % 74 % 1023,0 hPa 0,0 l/m 0,0 km/h (0 Bft) O-NO 67 1,9 C 6,2 C 0,0 km/h (0 Bft)
17.10.2018 06:20 25,6 C 6,2 C 7,1 C 44 % 74 % 1023,0 hPa 0,0 l/m 0,0 km/h (0 Bft) O-NO 67 1,9 C 6,2 C 0,0 km/h (0 Bft)
17.10.2018 06:18 25,5 C 6,3 C 7,1 C 44 % 74 % 1023,0 hPa 0,0 l/m 0,0 km/h (0 Bft) O-NO 67 2,0 C 6,3 C 0,0 km/h (0 Bft)
17.10.2018 06:16 25,5 C 6,3 C 7,1 C 44 % 74 % 1023,0 hPa 0,0 l/m 0,0 km/h (0 Bft) O-NO 67 2,0 C 6,3 C 0,0 km/h (0 Bft)
17.10.2018 06:14 25,5 C 6,3 C 7,1 C 44 % 74 % 1023,0 hPa 0,0 l/m 0,0 km/h (0 Bft) O-NO 67 2,0 C 6,3 C 0,0 km/h (0 Bft)
17.10.2018 06:12 25,5 C 6,3 C 7,3 C 44 % 74 % 1023,0 hPa 0,0 l/m 0,0 km/h (0 Bft) O-NO 67 2,0 C 6,3 C 0,0 km/h (0 Bft)
17.10.2018 06:10 25,5 C 6,4 C 7,3 C 44 % 74 % 1023,0 hPa 0,0 l/m 0,0 km/h (0 Bft) O-NO 67 2,1 C 6,4 C 0,0 km/h (0 Bft)
17.10.2018 06:08 25,5 C 6,4 C 7,3 C 43 % 74 % 1023,0 hPa 0,0 l/m 0,0 km/h (0 Bft) O-NO 67 2,1 C 6,4 C 0,0 km/h (0 Bft)
17.10.2018 06:06 25,5 C 6,4 C 7,3 C 44 % 74 % 1023,0 hPa 0,0 l/m 0,0 km/h (0 Bft) O-NO 67 2,1 C 6,4 C 0,0 km/h (0 Bft)
17.10.2018 06:04 25,5 C 6,4 C 7,3 C 44 % 74 % 1023,0 hPa 0,0 l/m 0,0 km/h (0 Bft) O-NO 67 2,1 C 6,4 C 0,0 km/h (0 Bft)
17.10.2018 06:02 25,4 C 6,4 C 7,3 C 44 % 74 % 1022,6 hPa 0,0 l/m 0,0 km/h (0 Bft) O-NO 67 2,1 C 6,4 C 0,0 km/h (0 Bft)
17.10.2018 06:00 25,4 C 6,4 C 7,3 C 44 % 74 % 1022,6 hPa 0,0 l/m 0,0 km/h (0 Bft) O-NO 67 2,1 C 6,4 C 0,0 km/h (0 Bft)
17.10.2018 05:58 25,4 C 6,4 C 7,4 C 44 % 74 % 1022,6 hPa 0,0 l/m 0,0 km/h (0 Bft) O-NO 67 2,1 C 6,4 C 0,0 km/h (0 Bft)
17.10.2018 05:56 25,4 C 6,5 C 7,3 C 44 % 74 % 1022,6 hPa 0,0 l/m 0,0 km/h (0 Bft) O-NO 67 2,2 C 6,5 C 0,0 km/h (0 Bft)
17.10.2018 05:54 25,4 C 6,5 C 7,4 C 44 % 74 % 1022,6 hPa 0,0 l/m 0,0 km/h (0 Bft) O-NO 67 2,2 C 6,5 C 0,0 km/h (0 Bft)
17.10.2018 05:52 25,4 C 6,5 C 7,4 C 44 % 74 % 1022,6 hPa 0,0 l/m 0,0 km/h (0 Bft) O-NO 67 2,2 C 6,5 C 0,0 km/h (0 Bft)
17.10.2018 05:50 25,4 C 6,5 C 7,4 C 44 % 74 % 1022,6 hPa 0,0 l/m 0,0 km/h (0 Bft) O-NO 67 2,2 C 6,5 C 0,0 km/h (0 Bft)
17.10.2018 05:48 25,4 C 6,5 C 7,5 C 44 % 74 % 1022,6 hPa 0,0 l/m 0,0 km/h (0 Bft) O-NO 67 2,2 C 6,5 C 0,0 km/h (0 Bft)
17.10.2018 05:46 25,4 C 6,5 C 7,4 C 44 % 74 % 1022,6 hPa 0,0 l/m 0,0 km/h (0 Bft) O-NO 67 2,2 C 6,5 C 0,0 km/h (0 Bft)
17.10.2018 05:44 25,4 C 6,5 C 7,4 C 44 % 74 % 1022,6 hPa 0,0 l/m 0,0 km/h (0 Bft) O-NO 67 2,2 C 6,5 C 0,0 km/h (0 Bft)
17.10.2018 05:42 25,4 C 6,5 C 7,3 C 44 % 74 % 1022,6 hPa 0,0 l/m 0,0 km/h (0 Bft) O-NO 67 2,2 C 6,5 C 0,0 km/h (0 Bft)
17.10.2018 05:40 25,4 C 6,5 C 7,2 C 44 % 74 % 1022,6 hPa 0,0 l/m 0,0 km/h (0 Bft) O-NO 67 2,2 C 6,5 C 0,0 km/h (0 Bft)
17.10.2018 05:38 25,2 C 6,5 C 7,2 C 44 % 74 % 1022,6 hPa 0,0 l/m 0,0 km/h (0 Bft) O-NO 67 2,2 C 6,5 C 0,0 km/h (0 Bft)
17.10.2018 05:36 25,2 C 6,5 C 7,3 C 44 % 74 % 1022,6 hPa 0,0 l/m 0,0 km/h (0 Bft) O-NO 67 2,2 C 6,5 C 0,0 km/h (0 Bft)
17.10.2018 05:34 25,2 C 6,5 C 7,4 C 44 % 74 % 1022,6 hPa 0,0 l/m 0,0 km/h (0 Bft) O-NO 67 2,2 C 6,5 C 0,0 km/h (0 Bft)
17.10.2018 05:32 25,3 C 6,5 C 7,4 C 44 % 74 % 1022,6 hPa 0,0 l/m 0,0 km/h (0 Bft) O-NO 67 2,2 C 6,5 C 0,0 km/h (0 Bft)
17.10.2018 05:30 25,3 C 6,5 C 7,5 C 44 % 74 % 1022,6 hPa 0,0 l/m 0,0 km/h (0 Bft) O-NO 67 2,2 C 6,5 C 0,0 km/h (0 Bft)
17.10.2018 05:28 25,3 C 6,6 C 7,5 C 44 % 74 % 1022,6 hPa 0,0 l/m 0,0 km/h (0 Bft) O-NO 67 2,3 C 6,6 C 0,0 km/h (0 Bft)
17.10.2018 05:26 25,2 C 6,6 C 7,4 C 44 % 74 % 1022,6 hPa 0,0 l/m 0,0 km/h (0 Bft) O-NO 67 2,3 C 6,6 C 0,0 km/h (0 Bft)
17.10.2018 05:24 25,2 C 6,5 C 7,6 C 44 % 74 % 1022,6 hPa 0,0 l/m 0,0 km/h (0 Bft) O-NO 67 2,2 C 6,5 C 0,0 km/h (0 Bft)
17.10.2018 05:22 25,2 C 6,5 C 7,6 C 44 % 74 % 1022,4 hPa 0,0 l/m 0,0 km/h (0 Bft) O-NO 67 2,2 C 6,5 C 0,0 km/h (0 Bft)
17.10.2018 05:20 25,2 C 6,5 C 7,3 C 44 % 74 % 1022,4 hPa 0,0 l/m 0,0 km/h (0 Bft) O-NO 67 2,2 C 6,5 C 0,0 km/h (0 Bft)
17.10.2018 05:18 25,2 C 6,5 C 7,2 C 44 % 74 % 1022,4 hPa 0,0 l/m 0,0 km/h (0 Bft) O-NO 67 2,2 C 6,5 C 0,0 km/h (0 Bft)
17.10.2018 05:16 25,2 C 6,5 C 7,1 C 44 % 74 % 1022,4 hPa 0,0 l/m 0,0 km/h (0 Bft) O-NO 67 2,2 C 6,5 C 0,0 km/h (0 Bft)
17.10.2018 05:14 25,2 C 6,6 C 7,1 C 44 % 74 % 1022,4 hPa 0,0 l/m 0,0 km/h (0 Bft) O-NO 67 2,3 C 6,6 C 0,0 km/h (0 Bft)
17.10.2018 05:12 25,2 C 6,6 C 7,1 C 44 % 74 % 1022,4 hPa 0,0 l/m 0,0 km/h (0 Bft) O-NO 67 2,3 C 6,6 C 0,0 km/h (0 Bft)
17.10.2018 05:10 25,2 C 6,6 C 7,3 C 44 % 74 % 1022,4 hPa 0,0 l/m 0,0 km/h (0 Bft) O-NO 67 2,3 C 6,6 C 0,0 km/h (0 Bft)
17.10.2018 05:08 25,2 C 6,7 C 7,3 C 44 % 74 % 1022,4 hPa 0,0 l/m 0,0 km/h (0 Bft) O-NO 67 2,4 C 6,7 C 0,0 km/h (0 Bft)
17.10.2018 05:06 25,2 C 6,7 C 7,4 C 44 % 74 % 1022,4 hPa 0,0 l/m 0,0 km/h (0 Bft) O-NO 67 2,4 C 6,7 C 0,0 km/h (0 Bft)
17.10.2018 05:04 25,1 C 6,8 C 7,5 C 44 % 74 % 1022,4 hPa 0,0 l/m 0,0 km/h (0 Bft) O-NO 67 2,5 C 6,8 C 0,0 km/h (0 Bft)
17.10.2018 05:02 25,1 C 6,9 C 7,6 C 44 % 74 % 1022,2 hPa 0,0 l/m 0,0 km/h (0 Bft) O-NO 67 2,6 C 6,9 C 0,0 km/h (0 Bft)
17.10.2018 05:00 25,1 C 6,9 C 7,6 C 44 % 74 % 1022,2 hPa 0,0 l/m 0,0 km/h (0 Bft) O-NO 67 2,6 C 6,9 C 0,0 km/h (0 Bft)
17.10.2018 04:58 25,1 C 6,9 C 7,6 C 44 % 74 % 1022,2 hPa 0,0 l/m 0,0 km/h (0 Bft) O-NO 67 2,6 C 6,9 C 0,0 km/h (0 Bft)
17.10.2018 04:56 25,1 C 6,9 C 7,8 C 44 % 74 % 1022,2 hPa 0,0 l/m 0,0 km/h (0 Bft) O-NO 67 2,6 C 6,9 C 0,0 km/h (0 Bft)
17.10.2018 04:54 25,0 C 7,0 C 7,8 C 44 % 74 % 1022,2 hPa 0,0 l/m 0,0 km/h (0 Bft) O-NO 67 2,7 C 7,0 C 0,0 km/h (0 Bft)
17.10.2018 04:52 25,0 C 7,0 C 7,9 C 44 % 74 % 1022,2 hPa 0,0 l/m 0,0 km/h (0 Bft) O-NO 67 2,7 C 7,0 C 0,0 km/h (0 Bft)
17.10.2018 04:50 25,0 C 7,0 C 7,8 C 44 % 74 % 1022,2 hPa 0,0 l/m 0,0 km/h (0 Bft) O-NO 67 2,7 C 7,0 C 0,0 km/h (0 Bft)
17.10.2018 04:48 25,0 C 7,0 C 7,9 C 44 % 74 % 1022,2 hPa 0,0 l/m 0,2 km/h (0 Bft) O-NO 67 2,7 C 7,0 C 0,0 km/h (0 Bft)
17.10.2018 04:46 25,0 C 7,0 C 7,9 C 44 % 74 % 1022,2 hPa 0,0 l/m 0,3 km/h (0 Bft) O-NO 67 2,7 C 7,0 C 0,0 km/h (0 Bft)
17.10.2018 04:44 25,0 C 7,0 C 7,9 C 44 % 74 % 1022,2 hPa 0,0 l/m 0,5 km/h (0 Bft) O-NO 67 2,7 C 7,0 C 0,0 km/h (0 Bft)
17.10.2018 04:42 24,9 C 7,0 C 7,9 C 44 % 74 % 1022,4 hPa 0,0 l/m 0,5 km/h (0 Bft) O-NO 67 2,7 C 7,0 C 0,0 km/h (0 Bft)
17.10.2018 04:40 24,9 C 6,9 C 7,8 C 44 % 74 % 1022,4 hPa 0,0 l/m 0,5 km/h (0 Bft) O-NO 67 2,6 C 6,9 C 2,1 km/h (1 Bft)
17.10.2018 04:38 24,9 C 6,9 C 7,7 C 44 % 74 % 1022,4 hPa 0,0 l/m 0,5 km/h (0 Bft) O-NO 67 2,6 C 6,9 C 2,5 km/h (1 Bft)
17.10.2018 04:36 24,9 C 6,9 C 7,7 C 44 % 74 % 1022,4 hPa 0,0 l/m 0,3 km/h (0 Bft) O-NO 67 2,6 C 6,9 C 2,5 km/h (1 Bft)
17.10.2018 04:34 24,9 C 6,9 C 7,7 C 44 % 74 % 1022,4 hPa 0,0 l/m 0,0 km/h (0 Bft) O-NO 67 2,6 C 6,9 C 0,0 km/h (0 Bft)
17.10.2018 04:32 24,8 C 6,9 C 7,6 C 44 % 74 % 1022,4 hPa 0,0 l/m 0,0 km/h (0 Bft) O-NO 67 2,6 C 6,9 C 0,0 km/h (0 Bft)
17.10.2018 04:30 24,8 C 6,9 C 7,5 C 44 % 74 % 1022,4 hPa 0,0 l/m 0,0 km/h (0 Bft) O-NO 67 2,6 C 6,9 C 0,0 km/h (0 Bft)
17.10.2018 04:28 24,8 C 6,9 C 7,7 C 44 % 74 % 1022,4 hPa 0,0 l/m 0,0 km/h (0 Bft) O-NO 67 2,6 C 6,9 C 0,0 km/h (0 Bft)
17.10.2018 04:26 24,8 C 7,0 C 7,7 C 44 % 74 % 1022,4 hPa 0,0 l/m 0,0 km/h (0 Bft) O-NO 67 2,7 C 7,0 C 0,0 km/h (0 Bft)
17.10.2018 04:24 24,8 C 7,0 C 7,9 C 44 % 74 % 1022,4 hPa 0,0 l/m 0,0 km/h (0 Bft) O-NO 67 2,7 C 7,0 C 0,0 km/h (0 Bft)
17.10.2018 04:22 24,8 C 7,0 C 8,0 C 44 % 74 % 1022,3 hPa 0,0 l/m 0,0 km/h (0 Bft) O-NO 67 2,7 C 7,0 C 0,0 km/h (0 Bft)
17.10.2018 04:20 24,8 C 7,0 C 8,1 C 44 % 74 % 1022,3 hPa 0,0 l/m 0,0 km/h (0 Bft) O-NO 67 2,7 C 7,0 C 0,0 km/h (0 Bft)
17.10.2018 04:18 24,8 C 7,0 C 7,9 C 44 % 74 % 1022,3 hPa 0,0 l/m 0,0 km/h (0 Bft) O-NO 67 2,7 C 7,0 C 0,0 km/h (0 Bft)
17.10.2018 04:16 24,7 C 7,0 C 7,9 C 44 % 74 % 1022,3 hPa 0,0 l/m 0,0 km/h (0 Bft) O-NO 67 2,7 C 7,0 C 0,0 km/h (0 Bft)
17.10.2018 04:14 24,7 C 7,0 C 7,8 C 44 % 74 % 1022,3 hPa 0,0 l/m 0,0 km/h (0 Bft) O-NO 67 2,7 C 7,0 C 0,0 km/h (0 Bft)
17.10.2018 04:12 24,7 C 7,1 C 7,8 C 44 % 74 % 1022,3 hPa 0,0 l/m 0,0 km/h (0 Bft) O-NO 67 2,8 C 7,1 C 0,0 km/h (0 Bft)
17.10.2018 04:10 24,7 C 7,1 C 7,9 C 44 % 74 % 1022,3 hPa 0,0 l/m 0,0 km/h (0 Bft) O-NO 67 2,8 C 7,1 C 0,0 km/h (0 Bft)
17.10.2018 04:08 24,7 C 7,1 C 7,9 C 44 % 74 % 1022,3 hPa 0,0 l/m 0,0 km/h (0 Bft) O-NO 67 2,8 C 7,1 C 0,0 km/h (0 Bft)
17.10.2018 04:06 24,7 C 7,1 C 8,0 C 44 % 74 % 1022,3 hPa 0,0 l/m 0,0 km/h (0 Bft) O-NO 67 2,8 C 7,1 C 0,0 km/h (0 Bft)
17.10.2018 04:04 24,7 C 7,1 C 7,9 C 44 % 74 % 1022,3 hPa 0,0 l/m 0,0 km/h (0 Bft) O-NO 67 2,8 C 7,1 C 0,0 km/h (0 Bft)
17.10.2018 04:01 24,7 C 7,1 C 8,0 C 44 % 74 % 1022,1 hPa 0,0 l/m 0,0 km/h (0 Bft) O-NO 67 2,8 C 7,1 C 0,0 km/h (0 Bft)
17.10.2018 04:00 24,7 C 7,1 C 8,0 C 44 % 74 % 1022,1 hPa 0,0 l/m 0,0 km/h (0 Bft) O-NO 67 2,8 C 7,1 C 0,0 km/h (0 Bft)
17.10.2018 03:58 24,6 C 7,1 C 8,0 C 44 % 74 % 1022,1 hPa 0,0 l/m 0,0 km/h (0 Bft) O-NO 67 2,8 C 7,1 C 0,0 km/h (0 Bft)
17.10.2018 03:56 24,7 C 7,1 C 8,0 C 44 % 74 % 1022,1 hPa 0,0 l/m 0,0 km/h (0 Bft) O-NO 67 2,8 C 7,1 C 0,0 km/h (0 Bft)
17.10.2018 03:54 24,6 C 7,1 C 8,0 C 44 % 74 % 1022,1 hPa 0,0 l/m 0,0 km/h (0 Bft) O-NO 67 2,8 C 7,1 C 0,0 km/h (0 Bft)
17.10.2018 03:52 24,6 C 7,1 C 8,0 C 44 % 74 % 1022,1 hPa 0,0 l/m 0,0 km/h (0 Bft) O-NO 67 2,8 C 7,1 C 0,0 km/h (0 Bft)
17.10.2018 03:50 24,6 C 7,2 C 7,9 C 44 % 74 % 1022,1 hPa 0,0 l/m 0,0 km/h (0 Bft) O-NO 67 2,9 C 7,2 C 0,0 km/h (0 Bft)
17.10.2018 03:48 24,6 C 7,2 C 7,9 C 44 % 74 % 1022,1 hPa 0,0 l/m 0,0 km/h (0 Bft) O-NO 67 2,9 C 7,2 C 0,0 km/h (0 Bft)
17.10.2018 03:46 24,6 C 7,4 C 7,9 C 44 % 74 % 1022,1 hPa 0,0 l/m 0,0 km/h (0 Bft) O-NO 67 3,1 C 7,4 C 0,0 km/h (0 Bft)
17.10.2018 03:44 24,6 C 7,4 C 8,0 C 44 % 74 % 1022,1 hPa 0,0 l/m 0,0 km/h (0 Bft) O-NO 67 3,1 C 7,4 C 0,0 km/h (0 Bft)
17.10.2018 03:42 24,6 C 7,4 C 8,1 C 44 % 74 % 1022,1 hPa 0,0 l/m 0,0 km/h (0 Bft) O-NO 67 3,1 C 7,4 C 0,0 km/h (0 Bft)
17.10.2018 03:40 24,6 C 7,4 C 8,2 C 44 % 74 % 1022,1 hPa 0,0 l/m 0,0 km/h (0 Bft) O-NO 67 3,1 C 7,4 C 0,0 km/h (0 Bft)
17.10.2018 03:38 24,6 C 7,4 C 8,1 C 44 % 74 % 1022,1 hPa 0,0 l/m 0,0 km/h (0 Bft) O-NO 67 3,1 C 7,4 C 0,0 km/h (0 Bft)
17.10.2018 03:36 24,6 C 7,5 C 8,1 C 44 % 74 % 1022,1 hPa 0,0 l/m 0,0 km/h (0 Bft) O-NO 67 3,2 C 7,5 C 0,0 km/h (0 Bft)
17.10.2018 03:34 24,6 C 7,5 C 8,2 C 44 % 74 % 1022,1 hPa 0,0 l/m 0,0 km/h (0 Bft) O-NO 67 3,2 C 7,5 C 0,0 km/h (0 Bft)
17.10.2018 03:32 24,6 C 7,5 C 8,1 C 44 % 74 % 1022,1 hPa 0,0 l/m 0,0 km/h (0 Bft) O-NO 67 3,2 C 7,5 C 0,0 km/h (0 Bft)
17.10.2018 03:30 24,6 C 7,5 C 8,1 C 44 % 74 % 1022,1 hPa 0,0 l/m 0,0 km/h (0 Bft) O-NO 67 3,2 C 7,5 C 0,0 km/h (0 Bft)
17.10.2018 03:28 24,6 C 7,5 C 8,1 C 44 % 74 % 1022,1 hPa 0,0 l/m 0,0 km/h (0 Bft) O-NO 67 3,2 C 7,5 C 0,0 km/h (0 Bft)
17.10.2018 03:26 24,6 C 7,5 C 8,2 C 44 % 74 % 1022,1 hPa 0,0 l/m 0,0 km/h (0 Bft) O-NO 67 3,2 C 7,5 C 0,0 km/h (0 Bft)
17.10.2018 03:24 24,6 C 7,5 C 8,2 C 44 % 74 % 1022,1 hPa 0,0 l/m 0,0 km/h (0 Bft) O-NO 67 3,2 C 7,5 C 0,0 km/h (0 Bft)
17.10.2018 03:22 24,5 C 7,5 C 8,3 C 44 % 74 % 1022,4 hPa 0,0 l/m 0,0 km/h (0 Bft) O-NO 67 3,2 C 7,5 C 0,0 km/h (0 Bft)
17.10.2018 03:20 24,5 C 7,6 C 8,2 C 44 % 74 % 1022,4 hPa 0,0 l/m 0,0 km/h (0 Bft) O-NO 67 3,3 C 7,6 C 0,0 km/h (0 Bft)
17.10.2018 03:18 24,5 C 7,6 C 8,2 C 44 % 74 % 1022,4 hPa 0,0 l/m 0,0 km/h (0 Bft) O-NO 67 3,3 C 7,6 C 0,0 km/h (0 Bft)
17.10.2018 03:16 24,5 C 7,6 C 8,2 C 44 % 74 % 1022,4 hPa 0,0 l/m 0,0 km/h (0 Bft) O-NO 67 3,3 C 7,6 C 0,0 km/h (0 Bft)
17.10.2018 03:14 24,5 C 7,6 C 8,2 C 44 % 74 % 1022,4 hPa 0,0 l/m 0,0 km/h (0 Bft) O-NO 67 3,3 C 7,6 C 0,0 km/h (0 Bft)
17.10.2018 03:12 24,5 C 7,6 C 8,2 C 44 % 74 % 1022,4 hPa 0,0 l/m 0,0 km/h (0 Bft) O-NO 67 3,3 C 7,6 C 0,0 km/h (0 Bft)
17.10.2018 03:10 24,5 C 7,9 C 8,5 C 44 % 74 % 1022,4 hPa 0,0 l/m 0,0 km/h (0 Bft) O-NO 67 3,6 C 7,9 C 0,0 km/h (0 Bft)
17.10.2018 03:08 24,5 C 7,9 C 8,5 C 43 % 74 % 1022,4 hPa 0,0 l/m 0,0 km/h (0 Bft) O-NO 67 3,6 C 7,9 C 0,0 km/h (0 Bft)
17.10.2018 03:06 24,5 C 7,9 C 8,5 C 44 % 74 % 1022,4 hPa 0,0 l/m 0,0 km/h (0 Bft) O-NO 67 3,6 C 7,9 C 0,0 km/h (0 Bft)
17.10.2018 03:04 24,5 C 7,9 C 8,5 C 43 % 74 % 1022,4 hPa 0,0 l/m 0,0 km/h (0 Bft) O-NO 67 3,6 C 7,9 C 0,0 km/h (0 Bft)
17.10.2018 03:02 24,5 C 7,9 C 8,5 C 43 % 74 % 1022,3 hPa 0,0 l/m 0,0 km/h (0 Bft) O-NO 67 3,6 C 7,9 C 0,0 km/h (0 Bft)
17.10.2018 03:00 24,5 C 7,9 C 8,5 C 43 % 74 % 1022,3 hPa 0,0 l/m 0,0 km/h (0 Bft) O-NO 67 3,6 C 7,9 C 0,0 km/h (0 Bft)
17.10.2018 02:58 24,5 C 7,9 C 8,5 C 43 % 74 % 1022,3 hPa 0,0 l/m 0,0 km/h (0 Bft) O-NO 67 3,6 C 7,9 C 0,0 km/h (0 Bft)
17.10.2018 02:56 24,5 C 7,9 C 8,6 C 43 % 74 % 1022,3 hPa 0,0 l/m 0,0 km/h (0 Bft) O-NO 67 3,6 C 7,9 C 0,0 km/h (0 Bft)
17.10.2018 02:54 24,5 C 8,0 C 8,5 C 43 % 73 % 1022,3 hPa 0,0 l/m 0,0 km/h (0 Bft) O-NO 67 3,5 C 8,0 C 0,0 km/h (0 Bft)
17.10.2018 02:52 24,5 C 8,0 C 8,5 C 43 % 73 % 1022,3 hPa 0,0 l/m 0,0 km/h (0 Bft) O-NO 67 3,5 C 8,0 C 0,0 km/h (0 Bft)
17.10.2018 02:50 24,5 C 8,0 C 8,5 C 43 % 73 % 1022,3 hPa 0,0 l/m 0,0 km/h (0 Bft) O-NO 67 3,5 C 8,0 C 0,0 km/h (0 Bft)
17.10.2018 02:48 24,6 C 8,1 C 8,5 C 43 % 73 % 1022,3 hPa 0,0 l/m 0,0 km/h (0 Bft) O-NO 67 3,6 C 8,1 C 0,0 km/h (0 Bft)
17.10.2018 02:46 24,6 C 8,1 C 8,6 C 43 % 73 % 1022,3 hPa 0,0 l/m 0,0 km/h (0 Bft) O-NO 67 3,6 C 8,1 C 0,0 km/h (0 Bft)
17.10.2018 02:44 24,6 C 8,1 C 8,7 C 43 % 73 % 1022,3 hPa 0,0 l/m 0,0 km/h (0 Bft) O-NO 67 3,6 C 8,1 C 0,0 km/h (0 Bft)
17.10.2018 02:42 24,6 C 8,2 C 8,7 C 43 % 73 % 1022,2 hPa 0,0 l/m 0,0 km/h (0 Bft) O-NO 67 3,7 C 8,2 C 0,0 km/h (0 Bft)
17.10.2018 02:40 24,6 C 8,2 C 8,9 C 43 % 73 % 1022,2 hPa 0,0 l/m 0,0 km/h (0 Bft) O-NO 67 3,7 C 8,2 C 0,0 km/h (0 Bft)
17.10.2018 02:38 24,6 C 8,2 C 9,0 C 43 % 73 % 1022,2 hPa 0,0 l/m 0,0 km/h (0 Bft) O-NO 67 3,7 C 8,2 C 0,0 km/h (0 Bft)
17.10.2018 02:36 24,6 C 8,2 C 9,0 C 43 % 73 % 1022,2 hPa 0,0 l/m 0,0 km/h (0 Bft) O-NO 67 3,7 C 8,2 C 0,0 km/h (0 Bft)
17.10.2018 02:34 24,6 C 8,2 C 9,0 C 43 % 73 % 1022,2 hPa 0,0 l/m 0,0 km/h (0 Bft) O-NO 67 3,7 C 8,2 C 0,0 km/h (0 Bft)
17.10.2018 02:32 24,6 C 8,2 C 9,0 C 43 % 73 % 1022,2 hPa 0,0 l/m 0,0 km/h (0 Bft) O-NO 67 3,7 C 8,2 C 0,0 km/h (0 Bft)
17.10.2018 02:30 24,6 C 8,2 C 9,0 C 43 % 73 % 1022,2 hPa 0,0 l/m 0,0 km/h (0 Bft) O-NO 67 3,7 C 8,2 C 0,0 km/h (0 Bft)
17.10.2018 02:28 24,7 C 8,2 C 8,9 C 43 % 73 % 1022,2 hPa 0,0 l/m 0,0 km/h (0 Bft) O-NO 67 3,7 C 8,2 C 0,0 km/h (0 Bft)
17.10.2018 02:26 24,6 C 8,2 C 8,9 C 43 % 73 % 1022,2 hPa 0,0 l/m 0,0 km/h (0 Bft) O-NO 67 3,7 C 8,2 C 0,0 km/h (0 Bft)
17.10.2018 02:24 24,7 C 8,1 C 8,8 C 43 % 73 % 1022,2 hPa 0,0 l/m 0,0 km/h (0 Bft) O-NO 67 3,6 C 8,1 C 0,0 km/h (0 Bft)
17.10.2018 02:22 24,7 C 8,1 C 8,8 C 43 % 73 % 1022,3 hPa 0,0 l/m 0,0 km/h (0 Bft) O-NO 67 3,6 C 8,1 C 0,0 km/h (0 Bft)
17.10.2018 02:20 24,7 C 8,1 C 8,8 C 43 % 73 % 1022,3 hPa 0,0 l/m 0,0 km/h (0 Bft) O-NO 67 3,6 C 8,1 C 0,0 km/h (0 Bft)
17.10.2018 02:18 24,7 C 8,2 C 8,8 C 43 % 73 % 1022,3 hPa 0,0 l/m 0,0 km/h (0 Bft) O-NO 67 3,7 C 8,2 C 0,0 km/h (0 Bft)
17.10.2018 02:16 24,7 C 8,2 C 8,7 C 43 % 73 % 1022,3 hPa 0,0 l/m 0,0 km/h (0 Bft) O-NO 67 3,7 C 8,2 C 0,0 km/h (0 Bft)
17.10.2018 02:14 24,7 C 8,2 C 8,8 C 43 % 73 % 1022,3 hPa 0,0 l/m 0,0 km/h (0 Bft) O-NO 67 3,7 C 8,2 C 0,0 km/h (0 Bft)
17.10.2018 02:12 24,7 C 8,3 C 8,8 C 43 % 73 % 1022,3 hPa 0,0 l/m 0,0 km/h (0 Bft) O-NO 67 3,8 C 8,3 C 0,0 km/h (0 Bft)
17.10.2018 02:10 24,8 C 8,3 C 8,9 C 43 % 73 % 1022,3 hPa 0,0 l/m 0,0 km/h (0 Bft) O-NO 67 3,8 C 8,3 C 0,0 km/h (0 Bft)
17.10.2018 02:08 24,8 C 8,3 C 8,9 C 43 % 73 % 1022,3 hPa 0,0 l/m 0,0 km/h (0 Bft) O-NO 67 3,8 C 8,3 C 0,0 km/h (0 Bft)
17.10.2018 02:06 24,8 C 8,4 C 9,0 C 43 % 73 % 1022,3 hPa 0,0 l/m 0,0 km/h (0 Bft) O-NO 67 3,8 C 8,4 C 0,0 km/h (0 Bft)
17.10.2018 02:04 24,8 C 8,4 C 9,0 C 43 % 73 % 1022,3 hPa 0,0 l/m 0,0 km/h (0 Bft) O-NO 67 3,8 C 8,4 C 0,0 km/h (0 Bft)
17.10.2018 02:02 24,8 C 8,4 C 9,1 C 43 % 73 % 1022,4 hPa 0,0 l/m 0,0 km/h (0 Bft) O-NO 67 3,8 C 8,4 C 0,0 km/h (0 Bft)
17.10.2018 02:00 24,8 C 8,5 C 9,1 C 43 % 73 % 1022,4 hPa 0,0 l/m 0,0 km/h (0 Bft) O-NO 67 3,9 C 8,5 C 0,0 km/h (0 Bft)
17.10.2018 01:58 24,8 C 8,5 C 9,1 C 43 % 73 % 1022,4 hPa 0,0 l/m 0,0 km/h (0 Bft) O-NO 67 3,9 C 8,5 C 0,0 km/h (0 Bft)
17.10.2018 01:56 24,8 C 8,5 C 9,1 C 43 % 73 % 1022,4 hPa 0,0 l/m 0,0 km/h (0 Bft) O-NO 67 3,9 C 8,5 C 0,0 km/h (0 Bft)
17.10.2018 01:54 24,8 C 8,5 C 9,2 C 43 % 73 % 1022,4 hPa 0,0 l/m 0,0 km/h (0 Bft) O-NO 67 3,9 C 8,5 C 0,0 km/h (0 Bft)
17.10.2018 01:52 24,8 C 8,5 C 9,2 C 43 % 73 % 1022,4 hPa 0,0 l/m 0,0 km/h (0 Bft) O-NO 67 3,9 C 8,5 C 0,0 km/h (0 Bft)
17.10.2018 01:50 24,8 C 8,6 C 9,3 C 43 % 73 % 1022,4 hPa 0,0 l/m 0,0 km/h (0 Bft) O-NO 67 4,0 C 8,6 C 0,0 km/h (0 Bft)
17.10.2018 01:48 24,9 C 8,6 C 9,2 C 43 % 73 % 1022,4 hPa 0,0 l/m 0,0 km/h (0 Bft) O-NO 67 4,0 C 8,6 C 0,0 km/h (0 Bft)
17.10.2018 01:46 24,9 C 8,6 C 9,1 C 43 % 73 % 1022,4 hPa 0,0 l/m 0,0 km/h (0 Bft) O-NO 67 4,0 C 8,6 C 0,0 km/h (0 Bft)
17.10.2018 01:44 24,9 C 8,6 C 9,1 C 43 % 73 % 1022,4 hPa 0,0 l/m 0,0 km/h (0 Bft) O-NO 67 4,0 C 8,6 C 0,0 km/h (0 Bft)
17.10.2018 01:42 24,9 C 8,6 C 9,2 C 43 % 73 % 1022,6 hPa 0,0 l/m 0,0 km/h (0 Bft) O-NO 67 4,0 C 8,6 C 0,0 km/h (0 Bft)
17.10.2018 01:40 24,9 C 8,6 C 9,2 C 43 % 73 % 1022,6 hPa 0,0 l/m 0,0 km/h (0 Bft) O-NO 67 4,0 C 8,6 C 0,0 km/h (0 Bft)
17.10.2018 01:38 24,9 C 8,6 C 9,3 C 43 % 73 % 1022,6 hPa 0,0 l/m 0,0 km/h (0 Bft) O-NO 67 4,0 C 8,6 C 0,0 km/h (0 Bft)
17.10.2018 01:36 24,9 C 8,7 C 9,4 C 43 % 73 % 1022,6 hPa 0,0 l/m 0,0 km/h (0 Bft) O-NO 67 4,1 C 8,7 C 0,0 km/h (0 Bft)
17.10.2018 01:34 24,9 C 8,7 C 9,4 C 43 % 73 % 1022,6 hPa 0,0 l/m 0,0 km/h (0 Bft) O-NO 67 4,1 C 8,7 C 0,0 km/h (0 Bft)
17.10.2018 01:32 24,9 C 8,7 C 9,4 C 43 % 73 % 1022,6 hPa 0,0 l/m 0,0 km/h (0 Bft) O-NO 67 4,1 C 8,7 C 0,0 km/h (0 Bft)
17.10.2018 01:30 25,0 C 8,7 C 9,3 C 43 % 73 % 1022,6 hPa 0,0 l/m 0,0 km/h (0 Bft) O-NO 67 4,1 C 8,7 C 0,0 km/h (0 Bft)
17.10.2018 01:28 25,0 C 8,7 C 9,3 C 43 % 73 % 1022,6 hPa 0,0 l/m 0,0 km/h (0 Bft) O-NO 67 4,1 C 8,7 C 0,0 km/h (0 Bft)
17.10.2018 01:26 25,0 C 8,7 C 9,3 C 43 % 73 % 1022,6 hPa 0,0 l/m 0,0 km/h (0 Bft) O-NO 67 4,1 C 8,7 C 0,0 km/h (0 Bft)
17.10.2018 01:24 25,0 C 8,8 C 9,3 C 43 % 73 % 1022,6 hPa 0,0 l/m 0,0 km/h (0 Bft) O-NO 67 4,2 C 8,8 C 0,0 km/h (0 Bft)
17.10.2018 01:22 25,0 C 8,8 C 9,2 C 43 % 73 % 1022,6 hPa 0,0 l/m 0,0 km/h (0 Bft) O-NO 67 4,2 C 8,8 C 0,0 km/h (0 Bft)
17.10.2018 01:20 25,0 C 8,8 C 9,4 C 43 % 73 % 1022,6 hPa 0,0 l/m 0,0 km/h (0 Bft) O-NO 67 4,2 C 8,8 C 0,0 km/h (0 Bft)
17.10.2018 01:18 25,0 C 8,8 C 9,4 C 43 % 73 % 1022,6 hPa 0,0 l/m 0,0 km/h (0 Bft) O-NO 67 4,2 C 8,8 C 0,0 km/h (0 Bft)
17.10.2018 01:16 25,0 C 8,9 C 9,4 C 43 % 73 % 1022,6 hPa 0,0 l/m 0,0 km/h (0 Bft) O-NO 67 4,3 C 8,9 C 0,0 km/h (0 Bft)
17.10.2018 01:14 25,0 C 8,9 C 9,3 C 43 % 73 % 1022,6 hPa 0,0 l/m 0,0 km/h (0 Bft) O-NO 67 4,3 C 8,9 C 0,0 km/h (0 Bft)
17.10.2018 01:12 25,0 C 8,9 C 9,3 C 43 % 73 % 1022,6 hPa 0,0 l/m 0,0 km/h (0 Bft) O-NO 67 4,3 C 8,9 C 0,0 km/h (0 Bft)
17.10.2018 01:10 25,0 C 9,0 C 9,4 C 43 % 72 % 1022,6 hPa 0,0 l/m 0,0 km/h (0 Bft) O-NO 67 4,2 C 9,0 C 0,0 km/h (0 Bft)
17.10.2018 01:08 25,1 C 9,0 C 9,5 C 43 % 72 % 1022,6 hPa 0,0 l/m 0,0 km/h (0 Bft) O-NO 67 4,2 C 9,0 C 0,0 km/h (0 Bft)
17.10.2018 01:06 25,1 C 9,0 C 9,6 C 43 % 72 % 1022,6 hPa 0,0 l/m 0,0 km/h (0 Bft) O-NO 67 4,2 C 9,0 C 0,0 km/h (0 Bft)
17.10.2018 01:04 25,1 C 9,2 C 9,6 C 43 % 72 % 1022,6 hPa 0,0 l/m 0,0 km/h (0 Bft) O-NO 67 4,4 C 9,2 C 0,0 km/h (0 Bft)
17.10.2018 01:02 25,1 C 9,2 C 9,6 C 43 % 72 % 1022,5 hPa 0,0 l/m 0,0 km/h (0 Bft) O-NO 67 4,4 C 9,2 C 0,0 km/h (0 Bft)
17.10.2018 01:00 25,1 C 9,2 C 9,6 C 42 % 72 % 1022,5 hPa 0,0 l/m 0,0 km/h (0 Bft) O-NO 67 4,4 C 9,2 C 0,0 km/h (0 Bft)
17.10.2018 00:58 25,1 C 9,3 C 9,6 C 43 % 72 % 1022,5 hPa 0,0 l/m 0,0 km/h (0 Bft) O-NO 67 4,5 C 9,3 C 0,0 km/h (0 Bft)
17.10.2018 00:56 25,2 C 9,3 C 9,6 C 42 % 72 % 1022,5 hPa 0,0 l/m 0,0 km/h (0 Bft) O-NO 67 4,5 C 9,3 C 0,0 km/h (0 Bft)
17.10.2018 00:54 25,2 C 9,3 C 9,7 C 42 % 72 % 1022,5 hPa 0,0 l/m 0,0 km/h (0 Bft) O-NO 67 4,5 C 9,3 C 0,0 km/h (0 Bft)
17.10.2018 00:52 25,2 C 9,3 C 9,8 C 42 % 72 % 1022,5 hPa 0,0 l/m 0,0 km/h (0 Bft) O-NO 67 4,5 C 9,3 C 0,0 km/h (0 Bft)
17.10.2018 00:50 25,2 C 9,4 C 9,9 C 42 % 72 % 1022,5 hPa 0,0 l/m 0,0 km/h (0 Bft) O-NO 67 4,6 C 9,4 C 0,0 km/h (0 Bft)
17.10.2018 00:48 25,2 C 9,4 C 9,8 C 42 % 72 % 1022,5 hPa 0,0 l/m 0,0 km/h (0 Bft) O-NO 67 4,6 C 9,4 C 0,0 km/h (0 Bft)
17.10.2018 00:46 25,2 C 9,4 C 9,8 C 42 % 72 % 1022,5 hPa 0,0 l/m 0,0 km/h (0 Bft) O-NO 67 4,6 C 9,4 C 0,0 km/h (0 Bft)
17.10.2018 00:44 25,2 C 9,4 C 9,8 C 42 % 72 % 1022,5 hPa 0,0 l/m 0,0 km/h (0 Bft) O-NO 67 4,6 C 9,4 C 0,0 km/h (0 Bft)
17.10.2018 00:42 25,2 C 9,3 C 9,8 C 42 % 72 % 1022,6 hPa 0,0 l/m 0,0 km/h (0 Bft) O-NO 67 4,5 C 9,3 C 0,0 km/h (0 Bft)
17.10.2018 00:40 25,2 C 9,3 C 9,9 C 42 % 72 % 1022,6 hPa 0,0 l/m 0,0 km/h (0 Bft) O-NO 67 4,5 C 9,3 C 0,0 km/h (0 Bft)
17.10.2018 00:38 25,2 C 9,3 C 9,9 C 42 % 72 % 1022,6 hPa 0,0 l/m 0,0 km/h (0 Bft) O-NO 67 4,5 C 9,3 C 0,0 km/h (0 Bft)
17.10.2018 00:36 25,3 C 9,4 C 10,0 C 42 % 72 % 1022,6 hPa 0,0 l/m 0,0 km/h (0 Bft) O-NO 67 4,6 C 9,4 C 0,0 km/h (0 Bft)
17.10.2018 00:34 25,3 C 9,4 C 9,9 C 42 % 72 % 1022,6 hPa 0,0 l/m 0,0 km/h (0 Bft) O-NO 67 4,6 C 9,4 C 0,0 km/h (0 Bft)
17.10.2018 00:32 25,2 C 9,4 C 9,9 C 42 % 72 % 1022,6 hPa 0,0 l/m 0,0 km/h (0 Bft) O-NO 67 4,6 C 9,4 C 0,0 km/h (0 Bft)
17.10.2018 00:30 25,2 C 9,4 C 9,9 C 42 % 72 % 1022,6 hPa 0,0 l/m 0,0 km/h (0 Bft) O-NO 67 4,6 C 9,4 C 0,0 km/h (0 Bft)
17.10.2018 00:28 25,2 C 9,4 C 9,8 C 42 % 71 % 1022,6 hPa 0,0 l/m 0,0 km/h (0 Bft) O-NO 67 4,4 C 9,4 C 0,0 km/h (0 Bft)
17.10.2018 00:26 25,4 C 9,4 C 9,8 C 42 % 71 % 1022,6 hPa 0,0 l/m 0,0 km/h (0 Bft) O-NO 67 4,4 C 9,4 C 0,0 km/h (0 Bft)
17.10.2018 00:24 25,4 C 9,6 C 9,9 C 42 % 71 % 1022,6 hPa 0,0 l/m 0,0 km/h (0 Bft) O-NO 67 4,6 C 9,6 C 0,0 km/h (0 Bft)
17.10.2018 00:22 25,4 C 9,6 C 9,9 C 42 % 71 % 1022,9 hPa 0,0 l/m 0,0 km/h (0 Bft) O-NO 67 4,6 C 9,6 C 0,0 km/h (0 Bft)
17.10.2018 00:20 25,4 C 9,6 C 9,9 C 42 % 71 % 1022,9 hPa 0,0 l/m 0,0 km/h (0 Bft) O-NO 67 4,6 C 9,6 C 0,0 km/h (0 Bft)
17.10.2018 00:18 25,4 C 9,6 C 9,9 C 42 % 71 % 1022,9 hPa 0,0 l/m 0,0 km/h (0 Bft) O-NO 67 4,6 C 9,6 C 0,0 km/h (0 Bft)
17.10.2018 00:16 25,4 C 9,7 C 10,0 C 42 % 71 % 1022,9 hPa 0,0 l/m 0,0 km/h (0 Bft) O-NO 67 4,7 C 9,7 C 0,0 km/h (0 Bft)
17.10.2018 00:14 25,4 C 9,7 C 9,9 C 42 % 71 % 1022,9 hPa 0,0 l/m 0,0 km/h (0 Bft) O-NO 67 4,7 C 9,7 C 0,0 km/h (0 Bft)
17.10.2018 00:12 25,5 C 9,7 C 9,9 C 42 % 71 % 1022,9 hPa 0,0 l/m 0,0 km/h (0 Bft) O-NO 67 4,7 C 9,7 C 0,0 km/h (0 Bft)
17.10.2018 00:10 25,5 C 9,8 C 9,9 C 42 % 71 % 1022,9 hPa 0,0 l/m 0,0 km/h (0 Bft) O-NO 67 4,8 C 9,8 C 0,0 km/h (0 Bft)
17.10.2018 00:08 25,5 C 10,1 C 10,2 C 42 % 71 % 1022,9 hPa 0,0 l/m 0,0 km/h (0 Bft) O-NO 67 5,1 C 10,1 C 0,0 km/h (0 Bft)
17.10.2018 00:06 25,5 C 10,1 C 10,2 C 42 % 71 % 1022,9 hPa 0,0 l/m 0,0 km/h (0 Bft) O-NO 67 5,1 C 10,1 C 0,0 km/h (0 Bft)
17.10.2018 00:04 25,5 C 10,1 C 10,2 C 42 % 71 % 1022,9 hPa 0,0 l/m 0,0 km/h (0 Bft) O-NO 67 5,1 C 10,1 C 0,0 km/h (0 Bft)
17.10.2018 00:02 25,5 C 10,1 C 10,2 C 42 % 71 % 1022,9 hPa 0,0 l/m 0,0 km/h (0 Bft) O-NO 67 5,1 C 10,1 C 0,0 km/h (0 Bft)
17.10.2018 00:00 25,6 C 10,1 C 10,2 C 42 % 71 % 1022,9 hPa 0,0 l/m 0,0 km/h (0 Bft) O-NO 67 5,1 C 10,1 C 0,0 km/h (0 Bft)
_ Min-Zeit 02:50 07:08 08:16 11:12 15:40 15:44 - 00:00 - - 06:42 07:08 00:00
Minimum _ 24,5 C 5,7 C 6,3 C 41 % 53 % 1021,7 hPa - 0,0 km/h (0 Bft) - - 1,7 C 5,7 C 0,0 km/h (0 Bft)
_ Max-Zeit 12:24 15:36 14:42 03:06 10:06 11:04 00:00 12:12 - - 14:38 15:36 10:12
Maximum _ 26,7 C 20,4 C 18,5 C 44 % 77 % 1024,2 hPa 0,0 l/m 4,7 km/h
SO (1 Bft)
- - 11,0 C 20,4 C 11,2 km/h
S (2 Bft)
Durchschnitt _ 25,6 C 10,9 C 10,7 C 42 % 70 % 1022,9 hPa #0,0 l/m 0,7 km/h (0 Bft) SO - 5,5 C 10,9 C 1,6 km/h (1 Bft)